Observation data for Odell on 01/13/2018      Previous  Date  Next       Current Mesonet Observations  Soil Data  Daily Summary Page  Observations in Plain Language
KOD1 130600Z 36006KT M04/M14 A3049 RMK A01 T10361135  RH  046%=      5-min Rain = 0
KOD1 130601Z 36006KT M04/M14 A3049 RMK A01 T10351135  RH  046%=      5-min Rain = 0
KOD1 130602Z 00005KT M04/M14 A3049 RMK A01 T10351135  RH  046%=      5-min Rain = 0
KOD1 130603Z 00005KT M04/M14 A3049 RMK A01 T10351135  RH  046%=      5-min Rain = 0
KOD1 130604Z 00005KT M04/M14 A3049 RMK A01 T10351135  RH  046%=      5-min Rain = 0
KOD1 130605Z 00005KT M03/M14 A3049 RMK A01 T10341135  RH  046%=      5-min Rain = 0
KOD1 130606Z 01006KT M03/M14 A3049 RMK A01 T10341135  RH  045%=      5-min Rain = 0
KOD1 130607Z 01005KT M03/M14 A3049 RMK A01 T10341136  RH  045%=      5-min Rain = 0
KOD1 130608Z 01006KT M03/M14 A3049 RMK A01 T10341136  RH  045%=      5-min Rain = 0
KOD1 130609Z 01006KT M03/M14 A3049 RMK A01 T10331136  RH  045%=      5-min Rain = 0
KOD1 130610Z 01006KT M03/M14 A3049 RMK A01 T10331136  RH  045%=      5-min Rain = 0
KOD1 130611Z 01006KT M03/M14 A3049 RMK A01 T10331136  RH  045%=      5-min Rain = 0
KOD1 130612Z 01006KT M03/M14 A3049 RMK A01 T10331136  RH  045%=      5-min Rain = 0
KOD1 130613Z 01006KT M03/M14 A3049 RMK A01 T10331136  RH  045%=      5-min Rain = 0
KOD1 130614Z 01006KT M03/M14 A3049 RMK A01 T10321136  RH  044%=      5-min Rain = 0
KOD1 130615Z 01005KT M03/M14 A3049 RMK A01 T10321136  RH  044%=      5-min Rain = 0
KOD1 130616Z 01005KT M03/M14 A3049 RMK A01 T10321136  RH  044%=      5-min Rain = 0
KOD1 130617Z 01005KT M03/M14 A3049 RMK A01 T10321136  RH  044%=      5-min Rain = 0
KOD1 130618Z 01005KT M03/M14 A3049 RMK A01 T10321136  RH  044%=      5-min Rain = 0
KOD1 130619Z 02004KT M03/M14 A3049 RMK A01 T10311136  RH  044%=      5-min Rain = 0
KOD1 130620Z 01004KT M03/M14 A3049 RMK A01 T10311137  RH  044%=      5-min Rain = 0
KOD1 130621Z 02004KT M03/M14 A3049 RMK A01 T10311136  RH  044%=      5-min Rain = 0
KOD1 130622Z 02004KT M03/M14 A3049 RMK A01 T10311137  RH  044%=      5-min Rain = 0
KOD1 130623Z 03004KT M03/M14 A3049 RMK A01 T10311137  RH  044%=      5-min Rain = 0
KOD1 130624Z 02005KT M03/M14 A3049 RMK A01 T10301137  RH  044%=      5-min Rain = 0
KOD1 130625Z 03004KT M03/M14 A3049 RMK A01 T10301138  RH  043%=      5-min Rain = 0
KOD1 130626Z 03004KT M03/M14 A3049 RMK A01 T10301138  RH  043%=      5-min Rain = 0
KOD1 130627Z 02004KT M03/M14 A3049 RMK A01 T10301138  RH  043%=      5-min Rain = 0
KOD1 130628Z 03004KT M03/M14 A3049 RMK A01 T10301138  RH  043%=      5-min Rain = 0
KOD1 130629Z 04003KT M03/M14 A3049 RMK A01 T10301138  RH  043%=      5-min Rain = 0
KOD1 130630Z 03003KT M03/M14 A3049 RMK A01 T10301138  RH  043%=      5-min Rain = 0
KOD1 130631Z 04004KT M03/M14 A3049 RMK A01 T10301138  RH  043%=      5-min Rain = 0
KOD1 130632Z 04004KT M03/M14 A3049 RMK A01 T10301137  RH  043%=      5-min Rain = 0
KOD1 130633Z 03004KT M03/M14 A3049 RMK A01 T10301138  RH  043%=      5-min Rain = 0
KOD1 130634Z 04004KT M03/M14 A3049 RMK A01 T10291138  RH  043%=      5-min Rain = 0
KOD1 130635Z 04003KT M03/M14 A3049 RMK A01 T10291137  RH  043%=      5-min Rain = 0
KOD1 130636Z 04003KT M03/M14 A3049 RMK A01 T10291137  RH  043%=      5-min Rain = 0
KOD1 130637Z 05004KT M03/M14 A3049 RMK A01 T10291138  RH  043%=      5-min Rain = 0
KOD1 130638Z 04003KT M03/M14 A3049 RMK A01 T10291137  RH  043%=      5-min Rain = 0
KOD1 130639Z 03003KT M03/M14 A3049 RMK A01 T10281137  RH  043%=      5-min Rain = 0
KOD1 130640Z 03002KT M03/M14 A3049 RMK A01 T10281137  RH  043%=      5-min Rain = 0
KOD1 130641Z 02004KT M03/M14 A3049 RMK A01 T10281137  RH  043%=      5-min Rain = 0
KOD1 130642Z 02004KT M03/M14 A3049 RMK A01 T10281137  RH  043%=      5-min Rain = 0
KOD1 130643Z 01004KT M03/M14 A3049 RMK A01 T10271138  RH  042%=      5-min Rain = 0
KOD1 130644Z 01004KT M03/M14 A3049 RMK A01 T10271137  RH  043%=      5-min Rain = 0
KOD1 130645Z 00005KT M03/M14 A3049 RMK A01 T10271137  RH  042%=      5-min Rain = 0
KOD1 130646Z 00005KT M03/M14 A305 RMK A01 T10271137  RH  042%=      5-min Rain = 0
KOD1 130647Z 35005KT M03/M14 A305 RMK A01 T10261137  RH  042%=      5-min Rain = 0
KOD1 130648Z 35007KT M03/M14 A305 RMK A01 T10261137  RH  042%=      5-min Rain = 0
KOD1 130649Z 35006KT M03/M14 A305 RMK A01 T10261136  RH  042%=      5-min Rain = 0
KOD1 130650Z 35005KT M03/M14 A305 RMK A01 T10261137  RH  042%=      5-min Rain = 0
KOD1 130651Z 35006KT M03/M14 A305 RMK A01 T10261137  RH  042%=      5-min Rain = 0
KOD1 130652Z 36007KT M03/M14 A305 RMK A01 T10261137  RH  042%=      5-min Rain = 0
KOD1 130653Z 36006KT M03/M14 A305 RMK A01 T10251137  RH  042%=      5-min Rain = 0
KOD1 130654Z 35007KT M03/M14 A305 RMK A01 T10251137  RH  042%=      5-min Rain = 0
KOD1 130655Z 35007KT M03/M14 A305 RMK A01 T10251137  RH  042%=      5-min Rain = 0
KOD1 130656Z 35007KT M03/M14 A305 RMK A01 T10251138  RH  042%=      5-min Rain = 0
KOD1 130657Z 35007KT M03/M14 A305 RMK A01 T10251137  RH  042%=      5-min Rain = 0
KOD1 130658Z 35007KT M02/M14 A305 RMK A01 T10241137  RH  042%=      5-min Rain = 0
KOD1 130659Z 35007KT M02/M14 A3051 RMK A01 T10241137  RH  042%=      5-min Rain = 0
KOD1 130700Z 35008KT M03/M14 A3051 RMK A01 T10251137  RH  042%=      5-min Rain = 0
KOD1 130701Z 35007KT M03/M14 A3051 RMK A01 T10251137  RH  042%=      5-min Rain = 0
KOD1 130702Z 35007KT M03/M14 A3051 RMK A01 T10251137  RH  042%=      5-min Rain = 0
KOD1 130703Z 35007KT M03/M14 A3051 RMK A01 T10251137  RH  042%=      5-min Rain = 0
KOD1 130704Z 35008KT M03/M14 A3051 RMK A01 T10251137  RH  042%=      5-min Rain = 0
KOD1 130705Z 35008KT M03/M14 A3051 RMK A01 T10251137  RH  042%=      5-min Rain = 0
KOD1 130706Z 35007KT M03/M14 A3051 RMK A01 T10251137  RH  042%=      5-min Rain = 0
KOD1 130707Z 36006KT M03/M14 A3051 RMK A01 T10251136  RH  042%=      5-min Rain = 0
KOD1 130708Z 36007KT M03/M14 A3051 RMK A01 T10251136  RH  042%=      5-min Rain = 0
KOD1 130709Z 35006KT M03/M14 A3051 RMK A01 T10251136  RH  042%=      5-min Rain = 0
KOD1 130710Z 36007KT M03/M14 A3051 RMK A01 T10251136  RH  042%=      5-min Rain = 0
KOD1 130711Z 00007KT M03/M14 A3051 RMK A01 T10261136  RH  042%=      5-min Rain = 0
KOD1 130712Z 36006KT M03/M14 A3051 RMK A01 T10261136  RH  042%=      5-min Rain = 0
KOD1 130713Z 36007KT M03/M14 A3051 RMK A01 T10261136  RH  042%=      5-min Rain = 0
KOD1 130714Z 01006KT M03/M14 A3051 RMK A01 T10261136  RH  042%=      5-min Rain = 0
KOD1 130715Z 00006KT M03/M14 A3051 RMK A01 T10261136  RH  042%=      5-min Rain = 0
KOD1 130716Z 01006KT M03/M14 A3051 RMK A01 T10261137  RH  042%=      5-min Rain = 0
KOD1 130717Z 00006KT M03/M14 A3051 RMK A01 T10261137  RH  042%=      5-min Rain = 0
KOD1 130718Z 00006KT M03/M14 A3051 RMK A01 T10271137  RH  042%=      5-min Rain = 0
KOD1 130719Z 00006KT M03/M14 A3051 RMK A01 T10271137  RH  042%=      5-min Rain = 0
KOD1 130720Z 01007KT M03/M14 A3051 RMK A01 T10271138  RH  042%=      5-min Rain = 0
KOD1 130721Z 01007KT M03/M14 A305 RMK A01 T10271138  RH  042%=      5-min Rain = 0
KOD1 130722Z 01008KT M03/M14 A305 RMK A01 T10281138  RH  042%=      5-min Rain = 0
KOD1 130723Z 01007KT M03/M14 A305 RMK A01 T10281138  RH  042%=      5-min Rain = 0
KOD1 130724Z 01006KT M03/M14 A305 RMK A01 T10281139  RH  042%=      5-min Rain = 0
KOD1 130725Z 02007KT M03/M14 A305 RMK A01 T10281139  RH  042%=      5-min Rain = 0
KOD1 130726Z 02006KT M03/M14 A305 RMK A01 T10281139  RH  042%=      5-min Rain = 0
KOD1 130727Z 02007KT M03/M14 A305 RMK A01 T10291140  RH  042%=      5-min Rain = 0
KOD1 130728Z 02007KT M03/M14 A305 RMK A01 T10291140  RH  042%=      5-min Rain = 0
KOD1 130729Z 01008KT M03/M14 A3051 RMK A01 T10291140  RH  042%=      5-min Rain = 0
KOD1 130730Z 02009KT M03/M14 A3051 RMK A01 T10291140  RH  042%=      5-min Rain = 0
KOD1 130731Z 02009KT M03/M14 A305 RMK A01 T10291140  RH  042%=      5-min Rain = 0
KOD1 130732Z 02008KT M03/M14 A3051 RMK A01 T10291140  RH  042%=      5-min Rain = 0
KOD1 130733Z 02009KT M03/M14 A3051 RMK A01 T10291140  RH  042%=      5-min Rain = 0
KOD1 130734Z 02009KT M03/M14 A3051 RMK A01 T10301140  RH  042%=      5-min Rain = 0
KOD1 130735Z 02008KT M03/M14 A3051 RMK A01 T10301140  RH  042%=      5-min Rain = 0
KOD1 130736Z 02008KT M03/M14 A3051 RMK A01 T10301140  RH  043%=      5-min Rain = 0
KOD1 130737Z 02008KT M03/M14 A3051 RMK A01 T10311140  RH  043%=      5-min Rain = 0
KOD1 130738Z 02007KT M03/M14 A3051 RMK A01 T10311140  RH  043%=      5-min Rain = 0
KOD1 130739Z 02008KT M03/M14 A3051 RMK A01 T10321140  RH  043%=      5-min Rain = 0
KOD1 130740Z 02008KT M03/M14 A3051 RMK A01 T10321140  RH  043%=      5-min Rain = 0
KOD1 130741Z 02007KT M03/M14 A3051 RMK A01 T10331140  RH  043%=      5-min Rain = 0
KOD1 130742Z 02007KT M03/M14 A3051 RMK A01 T10341140  RH  044%=      5-min Rain = 0
KOD1 130743Z 02007KT M03/M14 A3051 RMK A01 T10341140  RH  044%=      5-min Rain = 0
KOD1 130744Z 02007KT M04/M14 A3051 RMK A01 T10351140  RH  044%=      5-min Rain = 0
KOD1 130745Z 02007KT M04/M14 A3051 RMK A01 T10351140  RH  044%=      5-min Rain = 0
KOD1 130746Z 02007KT M04/M14 A3051 RMK A01 T10361140  RH  044%=      5-min Rain = 0
KOD1 130747Z 02007KT M04/M14 A3051 RMK A01 T10371140  RH  045%=      5-min Rain = 0
KOD1 130748Z 02007KT M04/M14 A3051 RMK A01 T10381140  RH  045%=      5-min Rain = 0
KOD1 130749Z 02006KT M04/M14 A3051 RMK A01 T10381140  RH  045%=      5-min Rain = 0
KOD1 130750Z 02006KT M04/M14 A3051 RMK A01 T10391140  RH  045%=      5-min Rain = 0
KOD1 130751Z 02006KT M04/M14 A3051 RMK A01 T10401140  RH  045%=      5-min Rain = 0
KOD1 130752Z 02006KT M04/M14 A3051 RMK A01 T10401140  RH  046%=      5-min Rain = 0
KOD1 130753Z 02006KT M04/M14 A3051 RMK A01 T10411141  RH  046%=      5-min Rain = 0
KOD1 130754Z 02006KT M04/M14 A3051 RMK A01 T10421141  RH  046%=      5-min Rain = 0
KOD1 130755Z 02006KT M04/M14 A3051 RMK A01 T10421141  RH  046%=      5-min Rain = 0
KOD1 130756Z 02006KT M04/M14 A3051 RMK A01 T10431141  RH  046%=      5-min Rain = 0
KOD1 130757Z 02005KT M04/M14 A3051 RMK A01 T10441141  RH  047%=      5-min Rain = 0
KOD1 130758Z 02005KT M05/M14 A3051 RMK A01 T10451142  RH  047%=      5-min Rain = 0
KOD1 130759Z 02005KT M05/M14 A3051 RMK A01 T10461142  RH  047%=      5-min Rain = 0
KOD1 130800Z 02005KT M05/M14 A3051 RMK A01 T10471143  RH  047%=      5-min Rain = 0
KOD1 130801Z 02005KT M05/M14 A3051 RMK A01 T10481143  RH  048%=      5-min Rain = 0
KOD1 130802Z 03005KT M05/M14 A3051 RMK A01 T10491142  RH  048%=      5-min Rain = 0
KOD1 130803Z 03005KT M05/M14 A3051 RMK A01 T10501142  RH  049%=      5-min Rain = 0
KOD1 130804Z 02004KT M05/M14 A3051 RMK A01 T10511142  RH  049%=      5-min Rain = 0
KOD1 130805Z 03004KT M05/M14 A3051 RMK A01 T10521143  RH  049%=      5-min Rain = 0
KOD1 130806Z 02004KT M05/M14 A3051 RMK A01 T10531144  RH  049%=      5-min Rain = 0
KOD1 130807Z 02004KT M05/M14 A3052 RMK A01 T10541144  RH  049%=      5-min Rain = 0
KOD1 130808Z 02004KT M06/M14 A3052 RMK A01 T10551143  RH  050%=      5-min Rain = 0
KOD1 130809Z 01004KT M06/M14 A3052 RMK A01 T10551142  RH  050%=      5-min Rain = 0
KOD1 130810Z 01005KT M06/M14 A3052 RMK A01 T10551141  RH  051%=      5-min Rain = 0
KOD1 130811Z 01005KT M06/M14 A3052 RMK A01 T10551140  RH  051%=      5-min Rain = 0
KOD1 130812Z 01005KT M05/M14 A3052 RMK A01 T10541140  RH  051%=      5-min Rain = 0
KOD1 130813Z 36004KT M05/M14 A3052 RMK A01 T10531140  RH  050%=      5-min Rain = 0
KOD1 130814Z 36004KT M05/M14 A3052 RMK A01 T10531140  RH  050%=      5-min Rain = 0
KOD1 130815Z 36005KT M05/M14 A3053 RMK A01 T10531140  RH  050%=      5-min Rain = 0
KOD1 130816Z 36005KT M05/M14 A3053 RMK A01 T10531140  RH  050%=      5-min Rain = 0
KOD1 130817Z 36005KT M05/M14 A3053 RMK A01 T10531140  RH  051%=      5-min Rain = 0
KOD1 130818Z 00005KT M05/M14 A3053 RMK A01 T10531140  RH  050%=      5-min Rain = 0
KOD1 130819Z 36005KT M05/M14 A3053 RMK A01 T10541140  RH  051%=      5-min Rain = 0
KOD1 130820Z 00005KT M05/M14 A3053 RMK A01 T10541140  RH  051%=      5-min Rain = 0
KOD1 130821Z 00005KT M05/M14 A3053 RMK A01 T10541140  RH  051%=      5-min Rain = 0
KOD1 130822Z 01005KT M06/M14 A3053 RMK A01 T10551140  RH  051%=      5-min Rain = 0
KOD1 130823Z 01005KT M06/M14 A3053 RMK A01 T10551140  RH  051%=      5-min Rain = 0
KOD1 130824Z 01005KT M06/M14 A3053 RMK A01 T10561141  RH  051%=      5-min Rain = 0
KOD1 130825Z 01006KT M06/M14 A3053 RMK A01 T10571140  RH  052%=      5-min Rain = 0
KOD1 130826Z 01006KT M06/M14 A3053 RMK A01 T10571140  RH  052%=      5-min Rain = 0
KOD1 130827Z 01006KT M06/M14 A3053 RMK A01 T10571140  RH  052%=      5-min Rain = 0
KOD1 130828Z 01006KT M06/M14 A3053 RMK A01 T10571140  RH  052%=      5-min Rain = 0
KOD1 130829Z 01006KT M06/M14 A3053 RMK A01 T10571140  RH  052%=      5-min Rain = 0
KOD1 130830Z 01006KT M06/M14 A3053 RMK A01 T10571140  RH  052%=      5-min Rain = 0
KOD1 130831Z 02007KT M06/M14 A3053 RMK A01 T10571141  RH  052%=      5-min Rain = 0
KOD1 130832Z 02006KT M06/M14 A3053 RMK A01 T10571141  RH  052%=      5-min Rain = 0
KOD1 130833Z 02006KT M06/M14 A3053 RMK A01 T10571141  RH  052%=      5-min Rain = 0
KOD1 130834Z 03006KT M06/M14 A3053 RMK A01 T10571141  RH  052%=      5-min Rain = 0
KOD1 130835Z 03006KT M06/M14 A3053 RMK A01 T10581142  RH  051%=      5-min Rain = 0
KOD1 130836Z 03006KT M06/M14 A3053 RMK A01 T10601144  RH  051%=      5-min Rain = 0
KOD1 130837Z 03006KT M06/M14 A3053 RMK A01 T10621144  RH  052%=      5-min Rain = 0
KOD1 130838Z 03006KT M06/M14 A3053 RMK A01 T10641144  RH  053%=      5-min Rain = 0
KOD1 130839Z 03006KT M07/M14 A3053 RMK A01 T10651143  RH  054%=      5-min Rain = 0
KOD1 130840Z 02006KT M07/M14 A3053 RMK A01 T10661144  RH  054%=      5-min Rain = 0
KOD1 130841Z 03006KT M07/M14 A3053 RMK A01 T10671143  RH  055%=      5-min Rain = 0
KOD1 130842Z 03006KT M07/M14 A3053 RMK A01 T10681143  RH  055%=      5-min Rain = 0
KOD1 130843Z 03006KT M07/M14 A3053 RMK A01 T10681143  RH  055%=      5-min Rain = 0
KOD1 130844Z 02006KT M07/M14 A3053 RMK A01 T10681142  RH  055%=      5-min Rain = 0
KOD1 130845Z 03007KT M07/M14 A3053 RMK A01 T10671141  RH  056%=      5-min Rain = 0
KOD1 130846Z 03006KT M07/M14 A3053 RMK A01 T10651140  RH  055%=      5-min Rain = 0
KOD1 130847Z 03006KT M06/M14 A3053 RMK A01 T10641140  RH  055%=      5-min Rain = 0
KOD1 130848Z 03006KT M06/M14 A3053 RMK A01 T10631142  RH  054%=      5-min Rain = 0
KOD1 130849Z 03006KT M06/M14 A3053 RMK A01 T10641142  RH  054%=      5-min Rain = 0
KOD1 130850Z 03006KT M06/M14 A3054 RMK A01 T10641142  RH  054%=      5-min Rain = 0
KOD1 130851Z 03005KT M07/M14 A3054 RMK A01 T10651143  RH  054%=      5-min Rain = 0
KOD1 130852Z 03006KT M07/M14 A3054 RMK A01 T10661143  RH  054%=      5-min Rain = 0
KOD1 130853Z 03006KT M07/M14 A3054 RMK A01 T10661142  RH  055%=      5-min Rain = 0
KOD1 130854Z 03006KT M07/M14 A3054 RMK A01 T10661141  RH  055%=      5-min Rain = 0
KOD1 130855Z 03006KT M07/M14 A3054 RMK A01 T10661140  RH  056%=      5-min Rain = 0
KOD1 130856Z 03006KT M07/M14 A3054 RMK A01 T10661140  RH  056%=      5-min Rain = 0
KOD1 130857Z 03006KT M07/M14 A3054 RMK A01 T10661139  RH  056%=      5-min Rain = 0
KOD1 130858Z 03006KT M07/M14 A3054 RMK A01 T10651139  RH  056%=      5-min Rain = 0
KOD1 130859Z 03006KT M07/M14 A3054 RMK A01 T10651138  RH  056%=      5-min Rain = 0
KOD1 130900Z 02006KT M06/M14 A3054 RMK A01 T10641138  RH  056%=      5-min Rain = 0
KOD1 130901Z 02007KT M06/M14 A3054 RMK A01 T10631138  RH  055%=      5-min Rain = 0
KOD1 130902Z 03007KT M06/M14 A3054 RMK A01 T10611137  RH  055%=      5-min Rain = 0
KOD1 130903Z 02007KT M06/M14 A3054 RMK A01 T10601137  RH  055%=      5-min Rain = 0
KOD1 130904Z 02007KT M06/M14 A3054 RMK A01 T10591137  RH  054%=      5-min Rain = 0
KOD1 130905Z 03006KT M06/M14 A3054 RMK A01 T10591137  RH  054%=      5-min Rain = 0
KOD1 130906Z 03007KT M06/M14 A3054 RMK A01 T10581137  RH  054%=      5-min Rain = 0
KOD1 130907Z 02007KT M06/M14 A3054 RMK A01 T10581137  RH  054%=      5-min Rain = 0
KOD1 130908Z 02007KT M06/M14 A3054 RMK A01 T10571137  RH  053%=      5-min Rain = 0
KOD1 130909Z 02007KT M06/M14 A3054 RMK A01 T10561137  RH  053%=      5-min Rain = 0
KOD1 130910Z 01008KT M06/M14 A3055 RMK A01 T10551138  RH  052%=      5-min Rain = 0
KOD1 130911Z 02009KT M05/M14 A3055 RMK A01 T10531139  RH  051%=      5-min Rain = 0
KOD1 130912Z 01008KT M05/M14 A3055 RMK A01 T10511139  RH  050%=      5-min Rain = 0
KOD1 130913Z 01009KT M05/M14 A3055 RMK A01 T10501140  RH  049%=      5-min Rain = 0
KOD1 130914Z 01008KT M05/M14 A3055 RMK A01 T10501141  RH  049%=      5-min Rain = 0
KOD1 130915Z 01008KT M05/M14 A3055 RMK A01 T10491141  RH  049%=      5-min Rain = 0
KOD1 130916Z 01008KT M05/M14 A3055 RMK A01 T10491142  RH  048%=      5-min Rain = 0
KOD1 130917Z 01009KT M05/M14 A3055 RMK A01 T10491142  RH  048%=      5-min Rain = 0
KOD1 130918Z 01009KT M05/M14 A3055 RMK A01 T10491143  RH  048%=      5-min Rain = 0
KOD1 130919Z 01009KT M05/M14 A3055 RMK A01 T10501143  RH  048%=      5-min Rain = 0
KOD1 130920Z 01009KT M05/M14 A3055 RMK A01 T10501143  RH  048%=      5-min Rain = 0
KOD1 130921Z 01009KT M05/M14 A3055 RMK A01 T10501144  RH  048%=      5-min Rain = 0
KOD1 130922Z 02010KT M05/M14 A3055 RMK A01 T10501144  RH  048%=      5-min Rain = 0
KOD1 130923Z 02009KT M05/M15 A3055 RMK A01 T10501145  RH  047%=      5-min Rain = 0
KOD1 130924Z 02010KT M05/M15 A3055 RMK A01 T10491145  RH  047%=      5-min Rain = 0
KOD1 130925Z 02009KT M05/M15 A3055 RMK A01 T10491145  RH  047%=      5-min Rain = 0
KOD1 130926Z 02009KT M05/M14 A3055 RMK A01 T10501144  RH  047%=      5-min Rain = 0
KOD1 130927Z 02009KT M05/M14 A3055 RMK A01 T10501144  RH  048%=      5-min Rain = 0
KOD1 130928Z 02009KT M05/M14 A3055 RMK A01 T10501144  RH  048%=      5-min Rain = 0
KOD1 130929Z 02008KT M05/M14 A3055 RMK A01 T10511144  RH  048%=      5-min Rain = 0
KOD1 130930Z 02010KT M05/M14 A3055 RMK A01 T10511144  RH  048%=      5-min Rain = 0
KOD1 130931Z 02010KT M05/M14 A3055 RMK A01 T10511143  RH  048%=      5-min Rain = 0
KOD1 130932Z 02008KT M05/M14 A3055 RMK A01 T10521143  RH  049%=      5-min Rain = 0
KOD1 130933Z 02009KT M05/M14 A3055 RMK A01 T10521143  RH  049%=      5-min Rain = 0
KOD1 130934Z 02009KT M05/M14 A3055 RMK A01 T10531143  RH  049%=      5-min Rain = 0
KOD1 130935Z 02009KT M05/M14 A3055 RMK A01 T10531143  RH  049%=      5-min Rain = 0
KOD1 130936Z 02009KT M05/M14 A3055 RMK A01 T10541143  RH  050%=      5-min Rain = 0
KOD1 130937Z 02008KT M05/M14 A3055 RMK A01 T10541143  RH  050%=      5-min Rain = 0
KOD1 130938Z 02009KT M06/M14 A3055 RMK A01 T10551143  RH  050%=      5-min Rain = 0
KOD1 130939Z 02008KT M06/M14 A3055 RMK A01 T10551143  RH  050%=      5-min Rain = 0
KOD1 130940Z 02009KT M06/M14 A3055 RMK A01 T10551143  RH  050%=      5-min Rain = 0
KOD1 130941Z 02010KT M06/M14 A3055 RMK A01 T10551143  RH  050%=      5-min Rain = 0
KOD1 130942Z 02010KT M06/M14 A3055 RMK A01 T10551144  RH  050%=      5-min Rain = 0
KOD1 130943Z 02009KT M06/M14 A3055 RMK A01 T10551144  RH  049%=      5-min Rain = 0
KOD1 130944Z 02010KT M06/M14 A3055 RMK A01 T10551144  RH  049%=      5-min Rain = 0
KOD1 130945Z 02010KT M06/M14 A3055 RMK A01 T10551144  RH  049%=      5-min Rain = 0
KOD1 130946Z 02011KT M06/M15 A3055 RMK A01 T10551145  RH  049%=      5-min Rain = 0
KOD1 130947Z 01011KT M06/M15 A3055 RMK A01 T10551145  RH  049%=      5-min Rain = 0
KOD1 130948Z 02010KT M06/M15 A3055 RMK A01 T10551145  RH  049%=      5-min Rain = 0
KOD1 130949Z 02010KT M06/M15 A3055 RMK A01 T10551145  RH  049%=      5-min Rain = 0
KOD1 130950Z 02011KT M05/M15 A3056 RMK A01 T10541145  RH  049%=      5-min Rain = 0
KOD1 130951Z 02010KT M05/M15 A3056 RMK A01 T10541145  RH  049%=      5-min Rain = 0
KOD1 130952Z 01010KT M05/M15 A3056 RMK A01 T10541145  RH  049%=      5-min Rain = 0
KOD1 130953Z 02010KT M06/M15 A3056 RMK A01 T10551145  RH  049%=      5-min Rain = 0
KOD1 130954Z 02009KT M06/M15 A3055 RMK A01 T10551145  RH  049%=      5-min Rain = 0
KOD1 130955Z 02009KT M06/M15 A3055 RMK A01 T10561145  RH  049%=      5-min Rain = 0
KOD1 130956Z 02011KT M06/M15 A3055 RMK A01 T10561145  RH  050%=      5-min Rain = 0
KOD1 130957Z 02011KT M06/M15 A3055 RMK A01 T10561145  RH  050%=      5-min Rain = 0
KOD1 130958Z 02009KT M06/M15 A3055 RMK A01 T10561145  RH  050%=      5-min Rain = 0
KOD1 130959Z 02011KT M06/M14 A3056 RMK A01 T10561144  RH  050%=      5-min Rain = 0
KOD1 131000Z 02009KT M06/M14 A3056 RMK A01 T10561144  RH  050%=      5-min Rain = 0
KOD1 131001Z 02009KT M06/M14 A3056 RMK A01 T10571144  RH  050%=      5-min Rain = 0
KOD1 131002Z 02009KT M06/M14 A3056 RMK A01 T10571144  RH  050%=      5-min Rain = 0
KOD1 131003Z 02009KT M06/M14 A3056 RMK A01 T10571144  RH  050%=      5-min Rain = 0
KOD1 131004Z 02009KT M06/M14 A3056 RMK A01 T10571144  RH  050%=      5-min Rain = 0
KOD1 131005Z 02010KT M06/M14 A3056 RMK A01 T10581144  RH  051%=      5-min Rain = 0
KOD1 131006Z 02011KT M06/M14 A3056 RMK A01 T10581143  RH  051%=      5-min Rain = 0
KOD1 131007Z 02010KT M06/M14 A3056 RMK A01 T10571143  RH  051%=      5-min Rain = 0
KOD1 131008Z 02009KT M06/M14 A3056 RMK A01 T10581144  RH  051%=      5-min Rain = 0
KOD1 131009Z 02008KT M06/M14 A3056 RMK A01 T10591144  RH  051%=      5-min Rain = 0
KOD1 131010Z 02008KT M06/M14 A3056 RMK A01 T10591143  RH  051%=      5-min Rain = 0
KOD1 131011Z 02009KT M06/M14 A3056 RMK A01 T10601143  RH  052%=      5-min Rain = 0
KOD1 131012Z 02009KT M06/M14 A3056 RMK A01 T10601143  RH  052%=      5-min Rain = 0
KOD1 131013Z 02008KT M06/M14 A3056 RMK A01 T10601143  RH  052%=      5-min Rain = 0
KOD1 131014Z 02008KT M06/M14 A3056 RMK A01 T10601143  RH  052%=      5-min Rain = 0
KOD1 131015Z 02008KT M06/M14 A3056 RMK A01 T10611143  RH  052%=      5-min Rain = 0
KOD1 131016Z 03008KT M06/M14 A3055 RMK A01 T10611143  RH  052%=      5-min Rain = 0
KOD1 131017Z 03007KT M06/M14 A3055 RMK A01 T10611143  RH  052%=      5-min Rain = 0
KOD1 131018Z 03007KT M06/M14 A3055 RMK A01 T10621143  RH  053%=      5-min Rain = 0
KOD1 131019Z 03007KT M06/M14 A3055 RMK A01 T10631143  RH  053%=      5-min Rain = 0
KOD1 131020Z 02007KT M06/M14 A3055 RMK A01 T10631143  RH  053%=      5-min Rain = 0
KOD1 131021Z 02007KT M06/M14 A3056 RMK A01 T10641143  RH  053%=      5-min Rain = 0
KOD1 131022Z 02007KT M07/M14 A3056 RMK A01 T10651143  RH  054%=      5-min Rain = 0
KOD1 131023Z 02007KT M07/M14 A3056 RMK A01 T10651143  RH  054%=      5-min Rain = 0
KOD1 131024Z 02007KT M07/M14 A3056 RMK A01 T10651143  RH  054%=      5-min Rain = 0
KOD1 131025Z 02007KT M07/M14 A3055 RMK A01 T10661143  RH  054%=      5-min Rain = 0
KOD1 131026Z 02007KT M07/M14 A3055 RMK A01 T10661143  RH  054%=      5-min Rain = 0
KOD1 131027Z 02007KT M07/M14 A3055 RMK A01 T10661143  RH  054%=      5-min Rain = 0
KOD1 131028Z 02007KT M07/M14 A3055 RMK A01 T10671143  RH  055%=      5-min Rain = 0
KOD1 131029Z 03007KT M07/M14 A3055 RMK A01 T10671143  RH  055%=      5-min Rain = 0
KOD1 131030Z 02006KT M07/M14 A3055 RMK A01 T10681143  RH  055%=      5-min Rain = 0
KOD1 131031Z 02006KT M07/M14 A3056 RMK A01 T10681143  RH  055%=      5-min Rain = 0
KOD1 131032Z 02006KT M07/M14 A3056 RMK A01 T10691143  RH  055%=      5-min Rain = 0
KOD1 131033Z 02006KT M07/M14 A3056 RMK A01 T10691144  RH  055%=      5-min Rain = 0
KOD1 131034Z 02006KT M07/M14 A3055 RMK A01 T10701144  RH  056%=      5-min Rain = 0
KOD1 131035Z 02006KT M07/M14 A3055 RMK A01 T10701144  RH  056%=      5-min Rain = 0
KOD1 131036Z 02006KT M07/M14 A3055 RMK A01 T10711144  RH  056%=      5-min Rain = 0
KOD1 131037Z 02007KT M07/M14 A3055 RMK A01 T10711143  RH  056%=      5-min Rain = 0
KOD1 131038Z 02007KT M07/M14 A3056 RMK A01 T10721143  RH  057%=      5-min Rain = 0
KOD1 131039Z 01006KT M07/M14 A3056 RMK A01 T10721143  RH  057%=      5-min Rain = 0
KOD1 131040Z 01006KT M07/M14 A3056 RMK A01 T10721143  RH  057%=      5-min Rain = 0
KOD1 131041Z 02006KT M07/M14 A3056 RMK A01 T10721143  RH  057%=      5-min Rain = 0
KOD1 131042Z 01006KT M07/M14 A3056 RMK A01 T10721142  RH  057%=      5-min Rain = 0
KOD1 131043Z 02006KT M07/M14 A3056 RMK A01 T10721142  RH  057%=      5-min Rain = 0
KOD1 131044Z 02006KT M07/M14 A3056 RMK A01 T10711142  RH  057%=      5-min Rain = 0
KOD1 131045Z 02006KT M07/M14 A3056 RMK A01 T10711141  RH  057%=      5-min Rain = 0
KOD1 131046Z 02006KT M07/M14 A3056 RMK A01 T10701141  RH  057%=      5-min Rain = 0
KOD1 131047Z 02006KT M07/M14 A3056 RMK A01 T10701141  RH  057%=      5-min Rain = 0
KOD1 131048Z 02006KT M07/M14 A3056 RMK A01 T10701141  RH  057%=      5-min Rain = 0
KOD1 131049Z 02005KT M07/M14 A3056 RMK A01 T10701140  RH  057%=      5-min Rain = 0
KOD1 131050Z 01005KT M07/M14 A3056 RMK A01 T10691140  RH  057%=      5-min Rain = 0
KOD1 131051Z 01005KT M07/M14 A3056 RMK A01 T10691140  RH  057%=      5-min Rain = 0
KOD1 131052Z 01004KT M07/M14 A3056 RMK A01 T10691140  RH  057%=      5-min Rain = 0
KOD1 131053Z 01004KT M07/M14 A3056 RMK A01 T10681140  RH  057%=      5-min Rain = 0
KOD1 131054Z 02004KT M07/M14 A3056 RMK A01 T10681139  RH  057%=      5-min Rain = 0
KOD1 131055Z 02004KT M07/M14 A3056 RMK A01 T10681139  RH  057%=      5-min Rain = 0
KOD1 131056Z 02004KT M07/M14 A3056 RMK A01 T10671138  RH  057%=      5-min Rain = 0
KOD1 131057Z 01003KT M07/M14 A3056 RMK A01 T10671138  RH  057%=      5-min Rain = 0
KOD1 131058Z 01004KT M07/M14 A3056 RMK A01 T10661137  RH  057%=      5-min Rain = 0
KOD1 131059Z 01004KT M07/M14 A3056 RMK A01 T10651137  RH  057%=      5-min Rain = 0
KOD1 131100Z 01003KT M06/M14 A3056 RMK A01 T10641136  RH  057%=      5-min Rain = 0
KOD1 131101Z 01003KT M06/M14 A3057 RMK A01 T10641136  RH  056%=      5-min Rain = 0
KOD1 131102Z 01003KT M06/M14 A3057 RMK A01 T10631136  RH  056%=      5-min Rain = 0
KOD1 131103Z 01004KT M06/M14 A3057 RMK A01 T10621136  RH  056%=      5-min Rain = 0
KOD1 131104Z 01003KT M06/M14 A3057 RMK A01 T10611136  RH  056%=      5-min Rain = 0
KOD1 131105Z 01004KT M06/M14 A3057 RMK A01 T10611136  RH  055%=      5-min Rain = 0
KOD1 131106Z 01004KT M06/M14 A3057 RMK A01 T10601136  RH  055%=      5-min Rain = 0
KOD1 131107Z 01004KT M06/M14 A3057 RMK A01 T10591135  RH  055%=      5-min Rain = 0
KOD1 131108Z 01004KT M06/M14 A3057 RMK A01 T10581136  RH  054%=      5-min Rain = 0
KOD1 131109Z 01005KT M06/M14 A3057 RMK A01 T10581137  RH  054%=      5-min Rain = 0
KOD1 131110Z 01005KT M06/M14 A3057 RMK A01 T10571136  RH  054%=      5-min Rain = 0
KOD1 131111Z 01006KT M06/M14 A3057 RMK A01 T10571137  RH  053%=      5-min Rain = 0
KOD1 131112Z 01005KT M06/M14 A3057 RMK A01 T10561137  RH  053%=      5-min Rain = 0
KOD1 131113Z 01004KT M06/M14 A3057 RMK A01 T10561137  RH  053%=      5-min Rain = 0
KOD1 131114Z 01004KT M06/M14 A3057 RMK A01 T10551136  RH  053%=      5-min Rain = 0
KOD1 131115Z 01005KT M06/M14 A3057 RMK A01 T10551136  RH  053%=      5-min Rain = 0
KOD1 131116Z 01005KT M06/M14 A3057 RMK A01 T10551136  RH  053%=      5-min Rain = 0
KOD1 131117Z 01006KT M06/M14 A3057 RMK A01 T10551137  RH  053%=      5-min Rain = 0
KOD1 131118Z 00006KT M06/M14 A3057 RMK A01 T10551137  RH  052%=      5-min Rain = 0
KOD1 131119Z 00006KT M06/M14 A3057 RMK A01 T10551136  RH  053%=      5-min Rain = 0
KOD1 131120Z 36006KT M06/M14 A3057 RMK A01 T10551136  RH  053%=      5-min Rain = 0
KOD1 131121Z 35007KT M06/M14 A3057 RMK A01 T10551137  RH  052%=      5-min Rain = 0
KOD1 131122Z 35007KT M05/M14 A3058 RMK A01 T10541136  RH  053%=      5-min Rain = 0
KOD1 131123Z 35007KT M05/M14 A3058 RMK A01 T10541136  RH  053%=      5-min Rain = 0
KOD1 131124Z 35008KT M05/M14 A3058 RMK A01 T10541136  RH  053%=      5-min Rain = 0
KOD1 131125Z 36008KT M05/M14 A3058 RMK A01 T10541136  RH  053%=      5-min Rain = 0
KOD1 131126Z 36007KT M05/M14 A3058 RMK A01 T10541135  RH  053%=      5-min Rain = 0
KOD1 131127Z 35007KT M05/M14 A3058 RMK A01 T10541135  RH  053%=      5-min Rain = 0
KOD1 131128Z 00007KT M05/M14 A3058 RMK A01 T10541135  RH  053%=      5-min Rain = 0
KOD1 131129Z 00007KT M05/M14 A3058 RMK A01 T10541135  RH  053%=      5-min Rain = 0
KOD1 131130Z 00007KT M05/M14 A3058 RMK A01 T10541136  RH  053%=      5-min Rain = 0
KOD1 131131Z 01007KT M05/M14 A3058 RMK A01 T10541136  RH  052%=      5-min Rain = 0
KOD1 131132Z 00006KT M05/M14 A3058 RMK A01 T10531135  RH  053%=      5-min Rain = 0
KOD1 131133Z 00007KT M05/M14 A3058 RMK A01 T10531135  RH  053%=      5-min Rain = 0
KOD1 131134Z 36007KT M05/M14 A3058 RMK A01 T10531135  RH  052%=      5-min Rain = 0
KOD1 131135Z 36008KT M05/M14 A3058 RMK A01 T10531136  RH  052%=      5-min Rain = 0
KOD1 131136Z 00006KT M05/M14 A3058 RMK A01 T10531135  RH  052%=      5-min Rain = 0
KOD1 131137Z 00007KT M05/M14 A3058 RMK A01 T10531135  RH  052%=      5-min Rain = 0
KOD1 131138Z 00007KT M05/M14 A3058 RMK A01 T10521135  RH  052%=      5-min Rain = 0
KOD1 131139Z 36007KT M05/M14 A3058 RMK A01 T10521135  RH  052%=      5-min Rain = 0
KOD1 131140Z 36007KT M05/M14 A3058 RMK A01 T10521135  RH  052%=      5-min Rain = 0
KOD1 131141Z 00006KT M05/M14 A3058 RMK A01 T10521135  RH  052%=      5-min Rain = 0
KOD1 131142Z 00006KT M05/M13 A3058 RMK A01 T10521134  RH  052%=      5-min Rain = 0
KOD1 131143Z 01005KT M05/M13 A3058 RMK A01 T10521134  RH  052%=      5-min Rain = 0
KOD1 131144Z 01007KT M05/M14 A3058 RMK A01 T10521135  RH  052%=      5-min Rain = 0
KOD1 131145Z 01007KT M05/M14 A3058 RMK A01 T10521135  RH  052%=      5-min Rain = 0
KOD1 131146Z 01008KT M05/M14 A3058 RMK A01 T10521136  RH  052%=      5-min Rain = 0
KOD1 131147Z 01008KT M05/M14 A3058 RMK A01 T10521136  RH  052%=      5-min Rain = 0
KOD1 131148Z 01008KT M05/M14 A3058 RMK A01 T10511136  RH  051%=      5-min Rain = 0
KOD1 131149Z 01006KT M05/M14 A3058 RMK A01 T10511136  RH  051%=      5-min Rain = 0
KOD1 131150Z 01006KT M05/M14 A3058 RMK A01 T10521136  RH  052%=      5-min Rain = 0
KOD1 131151Z 01008KT M05/M14 A3058 RMK A01 T10521136  RH  052%=      5-min Rain = 0
KOD1 131152Z 01008KT M05/M14 A3058 RMK A01 T10521136  RH  051%=      5-min Rain = 0
KOD1 131153Z 01007KT M05/M14 A3058 RMK A01 T10511136  RH  051%=      5-min Rain = 0
KOD1 131154Z 01008KT M05/M14 A3058 RMK A01 T10521136  RH  051%=      5-min Rain = 0
KOD1 131155Z 01007KT M05/M14 A3058 RMK A01 T10521136  RH  051%=      5-min Rain = 0
KOD1 131156Z 01007KT M05/M14 A3058 RMK A01 T10521136  RH  052%=      5-min Rain = 0
KOD1 131157Z 01007KT M05/M14 A3058 RMK A01 T10521136  RH  052%=      5-min Rain = 0
KOD1 131158Z 01007KT M05/M14 A3058 RMK A01 T10521136  RH  052%=      5-min Rain = 0
KOD1 131159Z 01007KT M05/M14 A3058 RMK A01 T10521136  RH  052%=      5-min Rain = 0
KOD1 131200Z 01006KT M05/M14 A3058 RMK A01 T10521136  RH  052%=      5-min Rain = 0
KOD1 131201Z 01006KT M05/M14 A3059 RMK A01 T10521136  RH  052%=      5-min Rain = 0
KOD1 131202Z 01006KT M05/M14 A3059 RMK A01 T10521136  RH  052%=      5-min Rain = 0
KOD1 131203Z 00006KT M05/M14 A3059 RMK A01 T10521136  RH  052%=      5-min Rain = 0
KOD1 131204Z 00005KT M05/M14 A3059 RMK A01 T10521136  RH  052%=      5-min Rain = 0
KOD1 131205Z 00005KT M05/M14 A3059 RMK A01 T10521136  RH  052%=      5-min Rain = 0
KOD1 131206Z 01006KT M05/M14 A3059 RMK A01 T10521136  RH  052%=      5-min Rain = 0
KOD1 131207Z 01007KT M05/M14 A3059 RMK A01 T10521136  RH  052%=      5-min Rain = 0
KOD1 131208Z 01006KT M05/M14 A3059 RMK A01 T10521136  RH  052%=      5-min Rain = 0
KOD1 131209Z 01006KT M05/M14 A3059 RMK A01 T10531136  RH  052%=      5-min Rain = 0
KOD1 131210Z 01006KT M05/M14 A3059 RMK A01 T10531137  RH  052%=      5-min Rain = 0
KOD1 131211Z 01006KT M05/M14 A3059 RMK A01 T10541137  RH  052%=      5-min Rain = 0
KOD1 131212Z 01005KT M05/M14 A3059 RMK A01 T10541137  RH  052%=      5-min Rain = 0
KOD1 131213Z 01006KT M06/M14 A3059 RMK A01 T10551138  RH  052%=      5-min Rain = 0
KOD1 131214Z 01006KT M06/M14 A3059 RMK A01 T10561138  RH  052%=      5-min Rain = 0
KOD1 131215Z 01006KT M06/M14 A3059 RMK A01 T10571138  RH  053%=      5-min Rain = 0
KOD1 131216Z 01006KT M06/M14 A3059 RMK A01 T10581139  RH  053%=      5-min Rain = 0
KOD1 131217Z 01007KT M06/M14 A3059 RMK A01 T10591139  RH  053%=      5-min Rain = 0
KOD1 131218Z 01007KT M06/M14 A3059 RMK A01 T10601139  RH  054%=      5-min Rain = 0
KOD1 131219Z 01007KT M06/M14 A3059 RMK A01 T10611139  RH  054%=      5-min Rain = 0
KOD1 131220Z 01007KT M06/M14 A3059 RMK A01 T10621139  RH  054%=      5-min Rain = 0
KOD1 131221Z 01007KT M06/M14 A306 RMK A01 T10621139  RH  055%=      5-min Rain = 0
KOD1 131222Z 01006KT M06/M14 A306 RMK A01 T10631139  RH  055%=      5-min Rain = 0
KOD1 131223Z 01007KT M06/M14 A306 RMK A01 T10631139  RH  055%=      5-min Rain = 0
KOD1 131224Z 01006KT M06/M14 A306 RMK A01 T10631138  RH  055%=      5-min Rain = 0
KOD1 131225Z 01006KT M06/M14 A306 RMK A01 T10631138  RH  055%=      5-min Rain = 0
KOD1 131226Z 01005KT M06/M14 A306 RMK A01 T10631138  RH  055%=      5-min Rain = 0
KOD1 131227Z 01005KT M06/M14 A306 RMK A01 T10631139  RH  055%=      5-min Rain = 0
KOD1 131228Z 00005KT M06/M14 A306 RMK A01 T10631139  RH  055%=      5-min Rain = 0
KOD1 131229Z 00005KT M06/M14 A306 RMK A01 T10641139  RH  055%=      5-min Rain = 0
KOD1 131230Z 00005KT M06/M14 A306 RMK A01 T10641139  RH  055%=      5-min Rain = 0
KOD1 131231Z 00005KT M07/M14 A306 RMK A01 T10651139  RH  055%=      5-min Rain = 0
KOD1 131232Z 01004KT M07/M14 A306 RMK A01 T10651139  RH  056%=      5-min Rain = 0
KOD1 131233Z 01004KT M07/M14 A306 RMK A01 T10651139  RH  056%=      5-min Rain = 0
KOD1 131234Z 01004KT M07/M14 A306 RMK A01 T10651139  RH  056%=      5-min Rain = 0
KOD1 131235Z 01004KT M07/M14 A306 RMK A01 T10661139  RH  056%=      5-min Rain = 0
KOD1 131236Z 00004KT M07/M14 A306 RMK A01 T10661139  RH  056%=      5-min Rain = 0
KOD1 131237Z 00004KT M07/M14 A306 RMK A01 T10661139  RH  056%=      5-min Rain = 0
KOD1 131238Z 01005KT M07/M14 A306 RMK A01 T10661139  RH  056%=      5-min Rain = 0
KOD1 131239Z 00005KT M07/M14 A3061 RMK A01 T10661139  RH  056%=      5-min Rain = 0
KOD1 131240Z 01005KT M07/M14 A3061 RMK A01 T10661139  RH  056%=      5-min Rain = 0
KOD1 131241Z 00005KT M07/M14 A3061 RMK A01 T10661139  RH  056%=      5-min Rain = 0
KOD1 131242Z 00005KT M07/M14 A3061 RMK A01 T10661139  RH  056%=      5-min Rain = 0
KOD1 131243Z 00005KT M07/M14 A3061 RMK A01 T10671138  RH  057%=      5-min Rain = 0
KOD1 131244Z 00005KT M07/M14 A3061 RMK A01 T10671138  RH  057%=      5-min Rain = 0
KOD1 131245Z 00004KT M07/M14 A3061 RMK A01 T10671138  RH  057%=      5-min Rain = 0
KOD1 131246Z 00005KT M07/M14 A3061 RMK A01 T10661138  RH  057%=      5-min Rain = 0
KOD1 131247Z 00005KT M07/M14 A3061 RMK A01 T10661138  RH  057%=      5-min Rain = 0
KOD1 131248Z 00004KT M07/M14 A3061 RMK A01 T10661138  RH  057%=      5-min Rain = 0
KOD1 131249Z 36005KT M07/M14 A3061 RMK A01 T10661138  RH  057%=      5-min Rain = 0
KOD1 131250Z 35004KT M07/M14 A3061 RMK A01 T10651138  RH  056%=      5-min Rain = 0
KOD1 131251Z 35003KT M07/M14 A3061 RMK A01 T10651138  RH  056%=      5-min Rain = 0
KOD1 131252Z 35003KT M07/M14 A3061 RMK A01 T10651139  RH  056%=      5-min Rain = 0
KOD1 131253Z 35003KT M07/M14 A3061 RMK A01 T10661140  RH  056%=      5-min Rain = 0
KOD1 131254Z 34003KT M07/M14 A3061 RMK A01 T10671140  RH  056%=      5-min Rain = 0
KOD1 131255Z 33002KT M07/M14 A3061 RMK A01 T10681140  RH  057%=      5-min Rain = 0
KOD1 131256Z 33002KT M07/M14 A3061 RMK A01 T10691140  RH  057%=      5-min Rain = 0
KOD1 131257Z 33003KT M07/M14 A3061 RMK A01 T10701140  RH  058%=      5-min Rain = 0
KOD1 131258Z 34003KT M07/M14 A3062 RMK A01 T10711140  RH  058%=      5-min Rain = 0
KOD1 131259Z 34003KT M07/M14 A3062 RMK A01 T10721140  RH  058%=      5-min Rain = 0
KOD1 131300Z 34003KT M07/M14 A3062 RMK A01 T10721139  RH  059%=      5-min Rain = 0
KOD1 131301Z 35003KT M07/M14 A3062 RMK A01 T10721139  RH  059%=      5-min Rain = 0
KOD1 131302Z 35004KT M07/M14 A3062 RMK A01 T10721138  RH  059%=      5-min Rain = 0
KOD1 131303Z 35004KT M07/M14 A3062 RMK A01 T10721137  RH  059%=      5-min Rain = 0
KOD1 131304Z 35004KT M07/M14 A3062 RMK A01 T10711137  RH  059%=      5-min Rain = 0
KOD1 131305Z 36004KT M07/M14 A3062 RMK A01 T10711137  RH  059%=      5-min Rain = 0
KOD1 131306Z 00004KT M07/M14 A3062 RMK A01 T10701136  RH  059%=      5-min Rain = 0
KOD1 131307Z 36004KT M07/M14 A3062 RMK A01 T10691136  RH  059%=      5-min Rain = 0
KOD1 131308Z 00005KT M07/M14 A3062 RMK A01 T10691135  RH  059%=      5-min Rain = 0
KOD1 131309Z 00004KT M07/M13 A3062 RMK A01 T10681134  RH  059%=      5-min Rain = 0
KOD1 131310Z 00005KT M07/M13 A3062 RMK A01 T10651134  RH  058%=      5-min Rain = 0
KOD1 131311Z 00004KT M06/M14 A3062 RMK A01 T10631135  RH  057%=      5-min Rain = 0
KOD1 131312Z 01005KT M06/M14 A3062 RMK A01 T10611135  RH  056%=      5-min Rain = 0
KOD1 131313Z 00005KT M06/M14 A3062 RMK A01 T10601136  RH  055%=      5-min Rain = 0
KOD1 131314Z 01005KT M06/M14 A3061 RMK A01 T10591136  RH  054%=      5-min Rain = 0
KOD1 131315Z 01005KT M06/M14 A3061 RMK A01 T10581136  RH  054%=      5-min Rain = 0
KOD1 131316Z 01005KT M06/M14 A3061 RMK A01 T10581137  RH  054%=      5-min Rain = 0
KOD1 131317Z 01006KT M06/M14 A3061 RMK A01 T10571137  RH  053%=      5-min Rain = 0
KOD1 131318Z 01006KT M06/M14 A3061 RMK A01 T10571137  RH  053%=      5-min Rain = 0
KOD1 131319Z 01007KT M06/M14 A3061 RMK A01 T10571138  RH  053%=      5-min Rain = 0
KOD1 131320Z 01006KT M06/M14 A3061 RMK A01 T10571138  RH  053%=      5-min Rain = 0
KOD1 131321Z 01006KT M06/M14 A3061 RMK A01 T10571139  RH  052%=      5-min Rain = 0
KOD1 131322Z 01005KT M06/M14 A3061 RMK A01 T10561139  RH  052%=      5-min Rain = 0
KOD1 131323Z 01006KT M06/M14 A3061 RMK A01 T10561140  RH  052%=      5-min Rain = 0
KOD1 131324Z 01006KT M06/M14 A3061 RMK A01 T10571140  RH  052%=      5-min Rain = 0
KOD1 131325Z 01006KT M06/M14 A3061 RMK A01 T10571140  RH  052%=      5-min Rain = 0
KOD1 131326Z 01006KT M06/M14 A3062 RMK A01 T10571140  RH  052%=      5-min Rain = 0
KOD1 131327Z 01006KT M06/M14 A3062 RMK A01 T10571141  RH  052%=      5-min Rain = 0
KOD1 131328Z 01006KT M06/M14 A3062 RMK A01 T10581141  RH  052%=      5-min Rain = 0
KOD1 131329Z 01006KT M06/M14 A3062 RMK A01 T10581141  RH  052%=      5-min Rain = 0
KOD1 131330Z 01006KT M06/M14 A3062 RMK A01 T10591141  RH  052%=      5-min Rain = 0
KOD1 131331Z 01006KT M06/M14 A3062 RMK A01 T10601142  RH  052%=      5-min Rain = 0
KOD1 131332Z 00006KT M06/M14 A3062 RMK A01 T10601142  RH  053%=      5-min Rain = 0
KOD1 131333Z 00005KT M06/M14 A3062 RMK A01 T10611141  RH  053%=      5-min Rain = 0
KOD1 131334Z 36004KT M06/M14 A3062 RMK A01 T10611141  RH  053%=      5-min Rain = 0
KOD1 131335Z 36004KT M06/M14 A3062 RMK A01 T10621141  RH  053%=      5-min Rain = 0
KOD1 131336Z 00004KT M06/M14 A3062 RMK A01 T10621141  RH  053%=      5-min Rain = 0
KOD1 131337Z 00004KT M06/M14 A3062 RMK A01 T10621142  RH  053%=      5-min Rain = 0
KOD1 131338Z 00004KT M06/M14 A3062 RMK A01 T10631142  RH  054%=      5-min Rain = 0
KOD1 131339Z 00004KT M06/M14 A3062 RMK A01 T10631142  RH  054%=      5-min Rain = 0
KOD1 131340Z 36004KT M06/M14 A3062 RMK A01 T10641142  RH  054%=      5-min Rain = 0
KOD1 131341Z 35003KT M06/M14 A3062 RMK A01 T10641142  RH  054%=      5-min Rain = 0
KOD1 131342Z 35003KT M07/M14 A3062 RMK A01 T10651142  RH  054%=      5-min Rain = 0
KOD1 131343Z 35003KT M07/M14 A3062 RMK A01 T10651142  RH  054%=      5-min Rain = 0
KOD1 131344Z 35003KT M07/M14 A3062 RMK A01 T10651142  RH  055%=      5-min Rain = 0
KOD1 131345Z 34003KT M07/M14 A3062 RMK A01 T10651142  RH  055%=      5-min Rain = 0
KOD1 131346Z 35003KT M07/M14 A3062 RMK A01 T10651142  RH  055%=      5-min Rain = 0
KOD1 131347Z 35003KT M07/M14 A3062 RMK A01 T10661142  RH  055%=      5-min Rain = 0
KOD1 131348Z 35004KT M07/M14 A3062 RMK A01 T10661141  RH  055%=      5-min Rain = 0
KOD1 131349Z 35004KT M07/M14 A3062 RMK A01 T10661141  RH  055%=      5-min Rain = 0
KOD1 131350Z 35004KT M07/M14 A3062 RMK A01 T10661141  RH  055%=      5-min Rain = 0
KOD1 131351Z 35004KT M07/M14 A3062 RMK A01 T10661141  RH  055%=      5-min Rain = 0
KOD1 131352Z 35005KT M07/M14 A3062 RMK A01 T10661141  RH  055%=      5-min Rain = 0
KOD1 131353Z 35004KT M07/M14 A3063 RMK A01 T10661141  RH  055%=      5-min Rain = 0
KOD1 131354Z 35004KT M07/M14 A3063 RMK A01 T10671141  RH  055%=      5-min Rain = 0
KOD1 131355Z 34004KT M07/M14 A3063 RMK A01 T10671141  RH  055%=      5-min Rain = 0
KOD1 131356Z 34003KT M07/M14 A3063 RMK A01 T10671142  RH  055%=      5-min Rain = 0
KOD1 131357Z 34004KT M07/M14 A3063 RMK A01 T10681142  RH  056%=      5-min Rain = 0
KOD1 131358Z 33003KT M07/M14 A3063 RMK A01 T10681142  RH  056%=      5-min Rain = 0
KOD1 131359Z 34003KT M07/M14 A3063 RMK A01 T10691142  RH  056%=      5-min Rain = 0
KOD1 131400Z 34004KT M07/M14 A3063 RMK A01 T10691141  RH  056%=      5-min Rain = 0
KOD1 131401Z 34004KT M07/M14 A3063 RMK A01 T10691141  RH  056%=      5-min Rain = 0
KOD1 131402Z 34004KT M07/M14 A3063 RMK A01 T10691142  RH  056%=      5-min Rain = 0
KOD1 131403Z 34004KT M07/M14 A3063 RMK A01 T10691142  RH  056%=      5-min Rain = 0
KOD1 131404Z 34005KT M07/M14 A3063 RMK A01 T10701142  RH  056%=      5-min Rain = 0
KOD1 131405Z 33005KT M07/M14 A3063 RMK A01 T10701143  RH  056%=      5-min Rain = 0
KOD1 131406Z 33005KT M07/M14 A3063 RMK A01 T10711143  RH  056%=      5-min Rain = 0
KOD1 131407Z 33005KT M07/M14 A3063 RMK A01 T10721144  RH  057%=      5-min Rain = 0
KOD1 131408Z 33005KT M07/M14 A3063 RMK A01 T10731144  RH  057%=      5-min Rain = 0
KOD1 131409Z 33005KT M07/M14 A3063 RMK A01 T10741144  RH  057%=      5-min Rain = 0
KOD1 131410Z 33005KT M07/M14 A3063 RMK A01 T10741144  RH  057%=      5-min Rain = 0
KOD1 131411Z 33005KT M07/M14 A3063 RMK A01 T10741143  RH  058%=      5-min Rain = 0
KOD1 131412Z 33005KT M07/M14 A3063 RMK A01 T10731143  RH  057%=      5-min Rain = 0
KOD1 131413Z 33005KT M07/M14 A3063 RMK A01 T10721143  RH  057%=      5-min Rain = 0
KOD1 131414Z 33005KT M07/M14 A3063 RMK A01 T10721142  RH  057%=      5-min Rain = 0
KOD1 131415Z 33004KT M07/M14 A3063 RMK A01 T10711142  RH  057%=      5-min Rain = 0
KOD1 131416Z 33005KT M07/M14 A3063 RMK A01 T10711143  RH  057%=      5-min Rain = 0
KOD1 131417Z 33004KT M07/M14 A3063 RMK A01 T10701143  RH  056%=      5-min Rain = 0
KOD1 131418Z 33004KT M07/M14 A3063 RMK A01 T10701142  RH  056%=      5-min Rain = 0
KOD1 131419Z 33004KT M07/M14 A3064 RMK A01 T10691141  RH  056%=      5-min Rain = 0
KOD1 131420Z 33004KT M07/M14 A3064 RMK A01 T10681141  RH  056%=      5-min Rain = 0
KOD1 131421Z 33004KT M07/M14 A3064 RMK A01 T10671140  RH  056%=      5-min Rain = 0
KOD1 131422Z 33004KT M07/M14 A3064 RMK A01 T10661139  RH  056%=      5-min Rain = 0
KOD1 131423Z 32004KT M06/M14 A3064 RMK A01 T10641138  RH  055%=      5-min Rain = 0
KOD1 131424Z 32003KT M06/M14 A3064 RMK A01 T10621138  RH  055%=      5-min Rain = 0
KOD1 131425Z 33002KT M06/M14 A3064 RMK A01 T10601138  RH  054%=      5-min Rain = 0
KOD1 131426Z 33002KT M06/M14 A3064 RMK A01 T10581137  RH  054%=      5-min Rain = 0
KOD1 131427Z 33002KT M06/M14 A3064 RMK A01 T10561138  RH  053%=      5-min Rain = 0
KOD1 131428Z 34003KT M06/M14 A3064 RMK A01 T10551139  RH  052%=      5-min Rain = 0
KOD1 131429Z 34003KT M05/M14 A3064 RMK A01 T10541137  RH  052%=      5-min Rain = 0
KOD1 131430Z 34003KT M05/M14 A3064 RMK A01 T10531137  RH  051%=      5-min Rain = 0
KOD1 131431Z 34004KT M05/M14 A3064 RMK A01 T10521137  RH  051%=      5-min Rain = 0
KOD1 131432Z 34004KT M05/M14 A3064 RMK A01 T10511137  RH  051%=      5-min Rain = 0
KOD1 131433Z 34004KT M05/M14 A3064 RMK A01 T10501138  RH  050%=      5-min Rain = 0
KOD1 131434Z 35004KT M05/M14 A3064 RMK A01 T10491137  RH  050%=      5-min Rain = 0
KOD1 131435Z 34003KT M05/M14 A3064 RMK A01 T10481137  RH  050%=      5-min Rain = 0
KOD1 131436Z 35003KT M05/M14 A3064 RMK A01 T10471135  RH  050%=      5-min Rain = 0
KOD1 131437Z 36005KT M05/M14 A3064 RMK A01 T10461136  RH  049%=      5-min Rain = 0
KOD1 131438Z 00005KT M05/M14 A3064 RMK A01 T10451135  RH  049%=      5-min Rain = 0
KOD1 131439Z 00006KT M04/M14 A3065 RMK A01 T10441137  RH  048%=      5-min Rain = 0
KOD1 131440Z 01006KT M04/M14 A3065 RMK A01 T10431135  RH  049%=      5-min Rain = 0
KOD1 131446Z 01007KT M04/M14 A3065 RMK A01 T10401139  RH  046%=      5-min Rain = 0
KOD1 131447Z 01007KT M04/M14 A3065 RMK A01 T10401138  RH  046%=      5-min Rain = 0
KOD1 131448Z 01007KT M04/M14 A3065 RMK A01 T10411139  RH  046%=      5-min Rain = 0
KOD1 131449Z 01007KT M04/M14 A3065 RMK A01 T10411138  RH  047%=      5-min Rain = 0
KOD1 131450Z 01006KT M04/M14 A3064 RMK A01 T10401138  RH  047%=      5-min Rain = 0
KOD1 131451Z 01006KT M04/M14 A3064 RMK A01 T10401138  RH  046%=      5-min Rain = 0
KOD1 131452Z 01006KT M04/M14 A3064 RMK A01 T10401137  RH  047%=      5-min Rain = 0
KOD1 131453Z 01007KT M04/M14 A3064 RMK A01 T10391137  RH  046%=      5-min Rain = 0
KOD1 131454Z 01007KT M04/M14 A3064 RMK A01 T10381139  RH  045%=      5-min Rain = 0
KOD1 131455Z 36007KT M04/M14 A3064 RMK A01 T10381139  RH  045%=      5-min Rain = 0
KOD1 131456Z 36008KT M04/M14 A3065 RMK A01 T10381140  RH  045%=      5-min Rain = 0
KOD1 131457Z 00007KT M04/M14 A3065 RMK A01 T10391140  RH  045%=      5-min Rain = 0
KOD1 131458Z 00007KT M04/M14 A3065 RMK A01 T10391140  RH  045%=      5-min Rain = 0
KOD1 131459Z 36006KT M04/M14 A3065 RMK A01 T10381139  RH  046%=      5-min Rain = 0
KOD1 131500Z 00008KT M04/M14 A3065 RMK A01 T10381140  RH  045%=      5-min Rain = 0
KOD1 131501Z 01009KT M04/M14 A3065 RMK A01 T10381140  RH  045%=      5-min Rain = 0
KOD1 131502Z 01008KT M04/M14 A3065 RMK A01 T10381141  RH  045%=      5-min Rain = 0
KOD1 131503Z 00008KT M04/M14 A3065 RMK A01 T10381140  RH  045%=      5-min Rain = 0
KOD1 131504Z 36008KT M04/M14 A3065 RMK A01 T10381140  RH  045%=      5-min Rain = 0
KOD1 131505Z 00010KT M04/M14 A3065 RMK A01 T10381141  RH  045%=      5-min Rain = 0
KOD1 131506Z 35010KT M04/M14 A3065 RMK A01 T10381142  RH  044%=      5-min Rain = 0
KOD1 131507Z 00009KT M04/M14 A3065 RMK A01 T10381141  RH  045%=      5-min Rain = 0
KOD1 131508Z 35008KT M04/M14 A3065 RMK A01 T10381140  RH  045%=      5-min Rain = 0
KOD1 131509Z 35008KT M04/M14 A3065 RMK A01 T10381141  RH  045%=      5-min Rain = 0
KOD1 131510Z 36010KT M04/M14 A3065 RMK A01 T10381141  RH  045%=      5-min Rain = 0
KOD1 131511Z 01008KT M04/M14 A3065 RMK A01 T10381140  RH  045%=      5-min Rain = 0
KOD1 131512Z 00009KT M04/M14 A3065 RMK A01 T10371140  RH  045%=      5-min Rain = 0
KOD1 131513Z 01009KT M04/M14 A3065 RMK A01 T10371141  RH  044%=      5-min Rain = 0
KOD1 131514Z 01009KT M04/M14 A3065 RMK A01 T10371141  RH  044%=      5-min Rain = 0
KOD1 131515Z 00009KT M04/M14 A3065 RMK A01 T10361140  RH  044%=      5-min Rain = 0
KOD1 131516Z 01008KT M04/M14 A3065 RMK A01 T10361140  RH  044%=      5-min Rain = 0
KOD1 131517Z 01009KT M04/M14 A3065 RMK A01 T10351141  RH  044%=      5-min Rain = 0
KOD1 131518Z 01009KT M04/M14 A3066 RMK A01 T10351141  RH  044%=      5-min Rain = 0
KOD1 131519Z 01010KT M04/M14 A3066 RMK A01 T10351141  RH  044%=      5-min Rain = 0
KOD1 131520Z 01009KT M03/M14 A3066 RMK A01 T10341141  RH  044%=      5-min Rain = 0
KOD1 131521Z 01008KT M03/M14 A3066 RMK A01 T10341140  RH  044%=      5-min Rain = 0
KOD1 131522Z 36010KT M03/M14 A3066 RMK A01 T10331140  RH  043%=      5-min Rain = 0
KOD1 131523Z 00010KT M03/M14 A3066 RMK A01 T10331142  RH  042%=      5-min Rain = 0
KOD1 131524Z 00010KT M03/M14 A3066 RMK A01 T10331142  RH  043%=      5-min Rain = 0
KOD1 131525Z 01009KT M03/M14 A3066 RMK A01 T10331143  RH  042%=      5-min Rain = 0
KOD1 131526Z 36010KT M03/M14 A3066 RMK A01 T10341143  RH  042%=      5-min Rain = 0
KOD1 131527Z 36009KT M03/M14 A3066 RMK A01 T10341143  RH  043%=      5-min Rain = 0
KOD1 131528Z 36008KT M04/M14 A3066 RMK A01 T10351143  RH  043%=      5-min Rain = 0
KOD1 131529Z 36010KT M04/M14 A3066 RMK A01 T10351143  RH  043%=      5-min Rain = 0
KOD1 131530Z 00009KT M04/M14 A3066 RMK A01 T10361143  RH  043%=      5-min Rain = 0
KOD1 131531Z 01009KT M04/M14 A3066 RMK A01 T10361142  RH  044%=      5-min Rain = 0
KOD1 131532Z 35009KT M04/M14 A3066 RMK A01 T10351142  RH  044%=      5-min Rain = 0
KOD1 131533Z 35009KT M04/M14 A3066 RMK A01 T10351142  RH  043%=      5-min Rain = 0
KOD1 131534Z 01009KT M04/M14 A3066 RMK A01 T10351142  RH  043%=      5-min Rain = 0
KOD1 131535Z 01009KT M03/M14 A3066 RMK A01 T10331140  RH  044%=      5-min Rain = 0
KOD1 131536Z 02009KT M03/M14 A3066 RMK A01 T10321141  RH  043%=      5-min Rain = 0
KOD1 131537Z 01008KT M03/M14 A3066 RMK A01 T10311140  RH  043%=      5-min Rain = 0
KOD1 131538Z 00008KT M03/M14 A3066 RMK A01 T10301139  RH  043%=      5-min Rain = 0
KOD1 131539Z 01009KT M03/M14 A3066 RMK A01 T10291140  RH  042%=      5-min Rain = 0
KOD1 131540Z 01011KT M03/M14 A3066 RMK A01 T10281140  RH  042%=      5-min Rain = 0
KOD1 131541Z 01010KT M03/M14 A3066 RMK A01 T10281141  RH  041%=      5-min Rain = 0
KOD1 131542Z 01008KT M03/M14 A3066 RMK A01 T10281139  RH  042%=      5-min Rain = 0
KOD1 131543Z 02008KT M03/M14 A3066 RMK A01 T10271140  RH  042%=      5-min Rain = 0
KOD1 131544Z 02008KT M03/M14 A3066 RMK A01 T10271140  RH  042%=      5-min Rain = 0
KOD1 131545Z 01010KT M03/M14 A3066 RMK A01 T10271139  RH  042%=      5-min Rain = 0
KOD1 131546Z 01010KT M03/M14 A3066 RMK A01 T10261140  RH  041%=      5-min Rain = 0
KOD1 131547Z 01010KT M03/M14 A3066 RMK A01 T10261140  RH  041%=      5-min Rain = 0
KOD1 131548Z 00009KT M03/M14 A3066 RMK A01 T10261140  RH  041%=      5-min Rain = 0
KOD1 131549Z 00008KT M03/M14 A3066 RMK A01 T10251139  RH  041%=      5-min Rain = 0
KOD1 131550Z 01009KT M02/M14 A3066 RMK A01 T10241138  RH  041%=      5-min Rain = 0
KOD1 131551Z 01007KT M02/M14 A3066 RMK A01 T10221137  RH  041%=      5-min Rain = 0
KOD1 131552Z 01008KT M02/M14 A3066 RMK A01 T10201138  RH  040%=      5-min Rain = 0
KOD1 131553Z 01008KT M02/M14 A3066 RMK A01 T10201139  RH  040%=      5-min Rain = 0
KOD1 131554Z 02007KT M02/M14 A3066 RMK A01 T10211139  RH  040%=      5-min Rain = 0
KOD1 131555Z 01007KT M02/M14 A3066 RMK A01 T10221139  RH  040%=      5-min Rain = 0
KOD1 131556Z 02008KT M02/M14 A3067 RMK A01 T10221139  RH  040%=      5-min Rain = 0
KOD1 131557Z 01009KT M02/M14 A3067 RMK A01 T10221137  RH  041%=      5-min Rain = 0
KOD1 131558Z 36008KT M02/M14 A3067 RMK A01 T10211138  RH  041%=      5-min Rain = 0
KOD1 131559Z 00009KT M02/M14 A3067 RMK A01 T10211139  RH  040%=      5-min Rain = 0
KOD1 131600Z 01008KT M02/M14 A3067 RMK A01 T10211139  RH  040%=      5-min Rain = 0
KOD1 131601Z 02008KT M02/M14 A3066 RMK A01 T10211139  RH  040%=      5-min Rain = 0
KOD1 131602Z 02009KT M02/M14 A3066 RMK A01 T10211142  RH  039%=      5-min Rain = 0
KOD1 131603Z 03008KT M02/M14 A3066 RMK A01 T10211144  RH  039%=      5-min Rain = 0
KOD1 131604Z 02006KT M02/M14 A3066 RMK A01 T10211143  RH  039%=      5-min Rain = 0
KOD1 131605Z 03007G12KT M02/M14 A3066 RMK A01 T10211142  RH  039%=      5-min Rain = 0
KOD1 131606Z 03010KT M02/M14 A3066 RMK A01 T10211142  RH  039%=      5-min Rain = 0
KOD1 131607Z 03006KT M02/M14 A3066 RMK A01 T10211142  RH  039%=      5-min Rain = 0
KOD1 131608Z 02008KT M02/M14 A3066 RMK A01 T10221142  RH  039%=      5-min Rain = 0
KOD1 131609Z 02006KT M02/M14 A3067 RMK A01 T10221143  RH  039%=      5-min Rain = 0
KOD1 131610Z 02007KT M02/M14 A3067 RMK A01 T10231142  RH  040%=      5-min Rain = 0
KOD1 131611Z 04008KT M02/M14 A3067 RMK A01 T10211140  RH  040%=      5-min Rain = 0
KOD1 131612Z 04008KT M02/M14 A3067 RMK A01 T10201143  RH  038%=      5-min Rain = 0
KOD1 131613Z 04007KT M02/M14 A3066 RMK A01 T10211144  RH  038%=      5-min Rain = 0
KOD1 131614Z 01005KT M02/M14 A3066 RMK A01 T10211142  RH  039%=      5-min Rain = 0
KOD1 131615Z 02006G11KT M02/M14 A3067 RMK A01 T10201141  RH  039%=      5-min Rain = 0
KOD1 131616Z 01009KT M02/M15 A3067 RMK A01 T10191145  RH  037%=      5-min Rain = 0
KOD1 131617Z 01007KT M02/M15 A3067 RMK A01 T10191145  RH  038%=      5-min Rain = 0
KOD1 131618Z 00006KT M02/M14 A3067 RMK A01 T10191142  RH  039%=      5-min Rain = 0
KOD1 131619Z 03006KT M02/M14 A3067 RMK A01 T10181142  RH  038%=      5-min Rain = 0
KOD1 131620Z 04009KT M02/M15 A3067 RMK A01 T10171145  RH  037%=      5-min Rain = 0
KOD1 131621Z 04008KT M02/M15 A3067 RMK A01 T10181146  RH  037%=      5-min Rain = 0
KOD1 131622Z 03007KT M02/M15 A3067 RMK A01 T10181146  RH  037%=      5-min Rain = 0
KOD1 131623Z 02009KT M02/M15 A3067 RMK A01 T10181146  RH  037%=      5-min Rain = 0
KOD1 131624Z 02007KT M02/M15 A3067 RMK A01 T10181146  RH  037%=      5-min Rain = 0
KOD1 131625Z 03006KT M02/M15 A3067 RMK A01 T10191145  RH  038%=      5-min Rain = 0
KOD1 131626Z 02005KT M02/M14 A3067 RMK A01 T10191143  RH  038%=      5-min Rain = 0
KOD1 131627Z 04005KT M02/M14 A3067 RMK A01 T10181143  RH  038%=      5-min Rain = 0
KOD1 131628Z 03008KT M02/M15 A3067 RMK A01 T10191149  RH  036%=      5-min Rain = 0
KOD1 131629Z 04007KT M02/M15 A3067 RMK A01 T10191149  RH  036%=      5-min Rain = 0
KOD1 131630Z 05008KT M02/M15 A3067 RMK A01 T10191148  RH  036%=      5-min Rain = 0
KOD1 131631Z 05007KT M02/M15 A3067 RMK A01 T10191147  RH  037%=      5-min Rain = 0
KOD1 131632Z 04008KT M02/M15 A3067 RMK A01 T10191145  RH  038%=      5-min Rain = 0
KOD1 131633Z 04007KT M02/M14 A3067 RMK A01 T10181144  RH  037%=      5-min Rain = 0
KOD1 131634Z 04006KT M02/M15 A3067 RMK A01 T10181145  RH  037%=      5-min Rain = 0
KOD1 131635Z 05008KT M02/M14 A3066 RMK A01 T10171143  RH  038%=      5-min Rain = 0
KOD1 131636Z 03007KT M02/M14 A3066 RMK A01 T10151143  RH  037%=      5-min Rain = 0
KOD1 131637Z 04007KT M01/M14 A3066 RMK A01 T10131143  RH  036%=      5-min Rain = 0
KOD1 131638Z 04005KT M01/M15 A3066 RMK A01 T10141146  RH  036%=      5-min Rain = 0
KOD1 131639Z 05004G9KT M01/M14 A3066 RMK A01 T10141144  RH  037%=      5-min Rain = 0
KOD1 131640Z 03007KT M01/M15 A3066 RMK A01 T10131145  RH  036%=      5-min Rain = 0
KOD1 131641Z 04007KT M01/M15 A3066 RMK A01 T10131147  RH  035%=      5-min Rain = 0
KOD1 131642Z 06007KT M01/M15 A3066 RMK A01 T10131146  RH  036%=      5-min Rain = 0
KOD1 131643Z 04006KT M01/M14 A3067 RMK A01 T10121144  RH  036%=      5-min Rain = 0
KOD1 131644Z 04005KT M01/M14 A3067 RMK A01 T10111143  RH  036%=      5-min Rain = 0
KOD1 131645Z 01006KT M01/M14 A3067 RMK A01 T10091144  RH  035%=      5-min Rain = 0
KOD1 131646Z 03006KT M01/M15 A3067 RMK A01 T10091146  RH  035%=      5-min Rain = 0
KOD1 131647Z 03006KT M01/M15 A3067 RMK A01 T10091147  RH  034%=      5-min Rain = 0
KOD1 131648Z 01007KT M01/M15 A3067 RMK A01 T10101148  RH  034%=      5-min Rain = 0
KOD1 131649Z 01006KT M01/M15 A3067 RMK A01 T10101146  RH  035%=      5-min Rain = 0
KOD1 131650Z 02006KT M01/M15 A3067 RMK A01 T10101148  RH  034%=      5-min Rain = 0
KOD1 131651Z 02005KT M01/M15 A3067 RMK A01 T10101148  RH  034%=      5-min Rain = 0
KOD1 131652Z 02005KT M01/M15 A3067 RMK A01 T10111148  RH  034%=      5-min Rain = 0
KOD1 131653Z 04004KT M01/M15 A3067 RMK A01 T10111148  RH  034%=      5-min Rain = 0
KOD1 131654Z 03005G10KT M01/M15 A3067 RMK A01 T10111147  RH  035%=      5-min Rain = 0
KOD1 131655Z 02007KT M01/M15 A3067 RMK A01 T10101146  RH  035%=      5-min Rain = 0
KOD1 131656Z 01006KT M01/M15 A3067 RMK A01 T10081147  RH  034%=      5-min Rain = 0
KOD1 131657Z 03005KT M01/M15 A3067 RMK A01 T10081145  RH  035%=      5-min Rain = 0
KOD1 131658Z 03006KT M01/M14 A3067 RMK A01 T10061144  RH  034%=      5-min Rain = 0
KOD1 131659Z 03005KT M01/M15 A3068 RMK A01 T10051148  RH  033%=      5-min Rain = 0
KOD1 131700Z 04005KT M01/M15 A3068 RMK A01 T10071148  RH  034%=      5-min Rain = 0
KOD1 131701Z 04003KT M01/M15 A3068 RMK A01 T10091148  RH  034%=      5-min Rain = 0
KOD1 131702Z 03004KT M01/M15 A3068 RMK A01 T10091146  RH  035%=      5-min Rain = 0
KOD1 131703Z 00006KT M01/M15 A3068 RMK A01 T10091147  RH  034%=      5-min Rain = 0
KOD1 131704Z 34002KT M01/M15 A3068 RMK A01 T10091147  RH  034%=      5-min Rain = 0
KOD1 131705Z 35005KT M01/M15 A3068 RMK A01 T10081146  RH  034%=      5-min Rain = 0
KOD1 131706Z 00005KT M01/M15 A3067 RMK A01 T10071148  RH  034%=      5-min Rain = 0
KOD1 131707Z 03006KT M01/M15 A3068 RMK A01 T10071147  RH  034%=      5-min Rain = 0
KOD1 131708Z 04004KT M01/M15 A3068 RMK A01 T10061147  RH  034%=      5-min Rain = 0
KOD1 131709Z 04004KT M01/M15 A3067 RMK A01 T10051147  RH  033%=      5-min Rain = 0
KOD1 131710Z 04005KT M01/M15 A3067 RMK A01 T10051148  RH  033%=      5-min Rain = 0
KOD1 131711Z 03005KT M01/M15 A3067 RMK A01 T10051148  RH  033%=      5-min Rain = 0
KOD1 131712Z 04005KT M00/M15 A3067 RMK A01 T10041146  RH  033%=      5-min Rain = 0
KOD1 131713Z 05005KT M00/M15 A3067 RMK A01 T10021147  RH  033%=      5-min Rain = 0
KOD1 131714Z 06004KT M00/M15 A3067 RMK A01 T10031150  RH  032%=      5-min Rain = 0
KOD1 131715Z 07003KT M01/M15 A3067 RMK A01 T10051149  RH  033%=      5-min Rain = 0
KOD1 131716Z 07003KT M00/M15 A3067 RMK A01 T10041147  RH  033%=      5-min Rain = 0
KOD1 131717Z 05004KT M00/M15 A3067 RMK A01 T10031146  RH  033%=      5-min Rain = 0
KOD1 131718Z 06004KT M00/M15 A3067 RMK A01 T10021145  RH  033%=      5-min Rain = 0
KOD1 131719Z 03003KT M00/M15 A3067 RMK A01 T10011145  RH  033%=      5-min Rain = 0
KOD1 131720Z 02002KT 00/15 A3067 RMK A01 T00-00-147  RH  032%=      5-min Rain = 0
KOD1 131721Z 35005KT M00/M15 A3067 RMK A01 T10011148  RH  032%=      5-min Rain = 0
KOD1 131722Z 00004KT M00/M15 A3067 RMK A01 T10021147  RH  033%=      5-min Rain = 0
KOD1 131723Z 00003KT M00/M15 A3067 RMK A01 T10031146  RH  033%=      5-min Rain = 0
KOD1 131724Z 02004KT M00/M15 A3067 RMK A01 T10021146  RH  033%=      5-min Rain = 0
KOD1 131725Z 01005KT M00/M15 A3067 RMK A01 T10021146  RH  033%=      5-min Rain = 0
KOD1 131726Z 36004KT M00/M15 A3067 RMK A01 T10021147  RH  032%=      5-min Rain = 0
KOD1 131727Z 01005KT M00/M15 A3067 RMK A01 T10031146  RH  033%=      5-min Rain = 0
KOD1 131728Z 00003G8KT M00/M15 A3067 RMK A01 T10031147  RH  033%=      5-min Rain = 0
KOD1 131729Z 01006KT M00/M15 A3067 RMK A01 T10041146  RH  033%=      5-min Rain = 0
KOD1 131730Z 01004KT M01/M15 A3067 RMK A01 T10051146  RH  033%=      5-min Rain = 0
KOD1 131731Z 02006KT M00/M14 A3067 RMK A01 T10041143  RH  034%=      5-min Rain = 0
KOD1 131732Z 03007KT M00/M15 A3067 RMK A01 T10011145  RH  033%=      5-min Rain = 0
KOD1 131733Z 02007KT 00/M15 A3067 RMK A01 T00011146  RH  032%=      5-min Rain = 0
KOD1 131734Z 02005KT 00/15 A3066 RMK A01 T00000-146  RH  032%=      5-min Rain = 0
KOD1 131735Z 03005KT 00/15 A3066 RMK A01 T00-00-146  RH  032%=      5-min Rain = 0
KOD1 131736Z 01005KT 00/15 A3066 RMK A01 T00-00-146  RH  033%=      5-min Rain = 0
KOD1 131737Z 01006KT 00/15 A3066 RMK A01 T00000-146  RH  032%=      5-min Rain = 0
KOD1 131738Z 02006KT 00/15 A3066 RMK A01 T00-00-148  RH  032%=      5-min Rain = 0
KOD1 131739Z 02006KT M00/M15 A3066 RMK A01 T10011147  RH  032%=      5-min Rain = 0
KOD1 131740Z 01004KT 00/15 A3066 RMK A01 T00-00-147  RH  032%=      5-min Rain = 0
KOD1 131741Z 00005KT 00/15 A3066 RMK A01 T00000-147  RH  032%=      5-min Rain = 0
KOD1 131742Z 34004KT 00/15 A3066 RMK A01 T00-00-148  RH  032%=      5-min Rain = 0
KOD1 131743Z 34003KT 00/15 A3066 RMK A01 T00-00-148  RH  032%=      5-min Rain = 0
KOD1 131744Z 35004KT 00/M15 A3066 RMK A01 T00011145  RH  032%=      5-min Rain = 0
KOD1 131745Z 33005KT 00/M15 A3066 RMK A01 T00021148  RH  032%=      5-min Rain = 0
KOD1 131746Z 33003KT 00/M15 A3066 RMK A01 T00021146  RH  032%=      5-min Rain = 0
KOD1 131747Z 33005KT 00/M15 A3066 RMK A01 T00041146  RH  032%=      5-min Rain = 0
KOD1 131748Z 33005KT 00/M15 A3066 RMK A01 T00041147  RH  031%=      5-min Rain = 0
KOD1 131749Z 32003KT 00/M15 A3065 RMK A01 T00031148  RH  031%=      5-min Rain = 0
KOD1 131750Z 33004KT 00/M15 A3065 RMK A01 T00031146  RH  032%=      5-min Rain = 0
KOD1 131751Z 33005KT 00/M15 A3065 RMK A01 T00041146  RH  031%=      5-min Rain = 0
KOD1 131752Z 33006KT 00/M15 A3065 RMK A01 T00041146  RH  031%=      5-min Rain = 0
KOD1 131753Z 35005KT 00/M15 A3065 RMK A01 T00041146  RH  032%=      5-min Rain = 0
KOD1 131754Z 33005KT 00/M15 A3064 RMK A01 T00041145  RH  032%=      5-min Rain = 0
KOD1 131755Z 35006KT 00/M15 A3064 RMK A01 T00041146  RH  032%=      5-min Rain = 0
KOD1 131756Z 35004KT 00/M15 A3064 RMK A01 T00041145  RH  032%=      5-min Rain = 0
KOD1 131757Z 34005KT 01/M15 A3064 RMK A01 T00051147  RH  031%=      5-min Rain = 0
KOD1 131758Z 32004KT 00/M15 A3064 RMK A01 T00041146  RH  031%=      5-min Rain = 0
KOD1 131759Z 36005KT 01/M15 A3064 RMK A01 T00051145  RH  032%=      5-min Rain = 0
KOD1 131800Z 36004KT 01/M15 A3064 RMK A01 T00051147  RH  031%=      5-min Rain = 0
KOD1 131801Z 02004KT 00/M15 A3064 RMK A01 T00041147  RH  031%=      5-min Rain = 0
KOD1 131802Z 01004KT 00/M15 A3064 RMK A01 T00041146  RH  031%=      5-min Rain = 0
KOD1 131803Z 03005KT 00/M15 A3064 RMK A01 T00041147  RH  031%=      5-min Rain = 0
KOD1 131804Z 04004KT 01/M15 A3064 RMK A01 T00051146  RH  031%=      5-min Rain = 0
KOD1 131805Z 03006KT 01/M15 A3064 RMK A01 T00071147  RH  031%=      5-min Rain = 0
KOD1 131806Z 05005KT 01/M15 A3064 RMK A01 T00061148  RH  030%=      5-min Rain = 0
KOD1 131807Z 07003KT 01/M15 A3063 RMK A01 T00051148  RH  031%=      5-min Rain = 0
KOD1 131808Z 01005KT 01/M15 A3063 RMK A01 T00051147  RH  031%=      5-min Rain = 0
KOD1 131809Z 02007KT 01/M15 A3063 RMK A01 T00061146  RH  031%=      5-min Rain = 0
KOD1 131810Z 03007KT 01/M15 A3063 RMK A01 T00071148  RH  030%=      5-min Rain = 0
KOD1 131811Z 03005KT 01/M15 A3063 RMK A01 T00071148  RH  030%=      5-min Rain = 0
KOD1 131812Z 03003KT 01/M15 A3063 RMK A01 T00081147  RH  030%=      5-min Rain = 0
KOD1 131813Z 35003KT 01/M15 A3063 RMK A01 T00101145  RH  030%=      5-min Rain = 0
KOD1 131814Z 33003KT 01/M15 A3063 RMK A01 T00111145  RH  030%=      5-min Rain = 0
KOD1 131815Z 34001KT 01/M15 A3063 RMK A01 T00111145  RH  030%=      5-min Rain = 0
KOD1 131816Z 29002KT 01/M15 A3063 RMK A01 T00111145  RH  030%=      5-min Rain = 0
KOD1 131817Z 30002KT 01/M15 A3063 RMK A01 T00111147  RH  030%=      5-min Rain = 0
KOD1 131818Z 31003KT 01/M15 A3063 RMK A01 T00101145  RH  030%=      5-min Rain = 0
KOD1 131819Z 01005KT 01/M15 A3063 RMK A01 T00101146  RH  030%=      5-min Rain = 0
KOD1 131820Z 36004KT 01/M15 A3063 RMK A01 T00101147  RH  030%=      5-min Rain = 0
KOD1 131821Z 00004KT 01/M15 A3062 RMK A01 T00101147  RH  030%=      5-min Rain = 0
KOD1 131822Z 01004KT 01/M15 A3062 RMK A01 T00101148  RH  030%=      5-min Rain = 0
KOD1 131823Z 01002KT 01/M15 A3062 RMK A01 T00111145  RH  030%=      5-min Rain = 0
KOD1 131824Z 32003KT 01/M15 A3062 RMK A01 T00121147  RH  029%=      5-min Rain = 0
KOD1 131825Z 35002KT 01/M15 A3062 RMK A01 T00121148  RH  029%=      5-min Rain = 0
KOD1 131826Z 27002KT 01/M15 A3062 RMK A01 T00131145  RH  030%=      5-min Rain = 0
KOD1 131827Z 34006KT 01/M15 A3062 RMK A01 T00141145  RH  029%=      5-min Rain = 0
KOD1 131828Z 34005KT 01/M15 A3062 RMK A01 T00131149  RH  029%=      5-min Rain = 0
KOD1 131829Z 34002KT 01/M15 A3062 RMK A01 T00121149  RH  029%=      5-min Rain = 0
KOD1 131830Z 33003KT 01/M15 A3061 RMK A01 T00111147  RH  030%=      5-min Rain = 0
KOD1 131831Z 34003KT 01/M15 A3061 RMK A01 T00111149  RH  029%=      5-min Rain = 0
KOD1 131832Z 26001KT 01/M15 A3061 RMK A01 T00111149  RH  029%=      5-min Rain = 0
KOD1 131833Z 35002KT 01/M15 A3061 RMK A01 T00111147  RH  030%=      5-min Rain = 0
KOD1 131834Z 00005KT 01/M15 A3061 RMK A01 T00121146  RH  030%=      5-min Rain = 0
KOD1 131835Z 35005KT 01/M15 A3061 RMK A01 T00131147  RH  029%=      5-min Rain = 0
KOD1 131836Z 34004KT 01/M15 A3061 RMK A01 T00121146  RH  030%=      5-min Rain = 0
KOD1 131837Z 35003KT 01/M15 A3061 RMK A01 T00121146  RH  030%=      5-min Rain = 0
KOD1 131838Z 34005KT 01/M14 A3061 RMK A01 T00131144  RH  030%=      5-min Rain = 0
KOD1 131839Z 34003KT 01/M15 A3061 RMK A01 T00131147  RH  029%=      5-min Rain = 0
KOD1 131840Z 00001KT 01/M15 A3061 RMK A01 T00131146  RH  029%=      5-min Rain = 0
KOD1 131841Z 01002KT 01/M14 A306 RMK A01 T00131144  RH  030%=      5-min Rain = 0
KOD1 131842Z 02001KT 01/M15 A306 RMK A01 T00141146  RH  029%=      5-min Rain = 0
KOD1 131843Z 06001KT 01/M15 A306 RMK A01 T00141145  RH  030%=      5-min Rain = 0
KOD1 131844Z 08000KT 01/M14 A306 RMK A01 T00141144  RH  030%=      5-min Rain = 0
KOD1 131845Z 00000KT 02/M14 A306 RMK A01 T00161143  RH  030%=      5-min Rain = 0
KOD1 131846Z 24000KT 02/M14 A306 RMK A01 T00181142  RH  029%=      5-min Rain = 0
KOD1 131847Z 10002KT 02/M14 A3059 RMK A01 T00201143  RH  029%=      5-min Rain = 0
KOD1 131848Z 09003KT 02/M15 A3059 RMK A01 T00191145  RH  029%=      5-min Rain = 0
KOD1 131849Z 08001KT 02/M15 A3059 RMK A01 T00191145  RH  029%=      5-min Rain = 0
KOD1 131850Z 03002KT 02/M15 A3059 RMK A01 T00201145  RH  028%=      5-min Rain = 0
KOD1 131851Z 12002KT 02/M14 A3059 RMK A01 T00201143  RH  029%=      5-min Rain = 0
KOD1 131852Z 11002KT 02/M14 A3059 RMK A01 T00211141  RH  029%=      5-min Rain = 0
KOD1 131853Z 07002KT 02/M15 A3059 RMK A01 T00201145  RH  028%=      5-min Rain = 0
KOD1 131854Z 07002KT 02/M14 A3059 RMK A01 T00201144  RH  029%=      5-min Rain = 0
KOD1 131855Z 04002KT 02/M14 A3059 RMK A01 T00211141  RH  029%=      5-min Rain = 0
KOD1 131856Z 04004KT 02/M15 A3059 RMK A01 T00211145  RH  028%=      5-min Rain = 0
KOD1 131857Z 05002KT 02/M15 A3059 RMK A01 T00191145  RH  028%=      5-min Rain = 0
KOD1 131858Z 04003KT 02/M14 A3059 RMK A01 T00171144  RH  029%=      5-min Rain = 0
KOD1 131859Z 06003KT 02/M15 A3059 RMK A01 T00171145  RH  029%=      5-min Rain = 0
KOD1 131900Z 05000KT 02/M14 A3059 RMK A01 T00171143  RH  029%=      5-min Rain = 0
KOD1 131901Z 01004KT 02/M14 A3059 RMK A01 T00191141  RH  030%=      5-min Rain = 0
KOD1 131902Z 01003KT 02/M14 A3059 RMK A01 T00191143  RH  029%=      5-min Rain = 0
KOD1 131903Z 03004KT 02/M14 A3059 RMK A01 T00191140  RH  029%=      5-min Rain = 0
KOD1 131904Z 02004KT 02/M14 A3059 RMK A01 T00201142  RH  029%=      5-min Rain = 0
KOD1 131905Z 06003KT 02/M14 A3059 RMK A01 T00191142  RH  029%=      5-min Rain = 0
KOD1 131906Z 08002KT 02/M14 A3059 RMK A01 T00191141  RH  029%=      5-min Rain = 0
KOD1 131907Z 14002KT 02/M14 A3059 RMK A01 T00191141  RH  030%=      5-min Rain = 0
KOD1 131908Z 13002KT 02/M14 A3058 RMK A01 T00191139  RH  030%=      5-min Rain = 0
KOD1 131909Z 09002KT 02/M14 A3058 RMK A01 T00211139  RH  029%=      5-min Rain = 0
KOD1 131910Z 04004KT 02/M14 A3058 RMK A01 T00211138  RH  030%=      5-min Rain = 0
KOD1 131911Z 03005KT 02/M14 A3058 RMK A01 T00231140  RH  029%=      5-min Rain = 0
KOD1 131912Z 05004KT 02/M14 A3058 RMK A01 T00211140  RH  029%=      5-min Rain = 0
KOD1 131913Z 05003KT 02/M14 A3058 RMK A01 T00191140  RH  030%=      5-min Rain = 0
KOD1 131914Z 06001KT 02/M14 A3058 RMK A01 T00181138  RH  030%=      5-min Rain = 0
KOD1 131915Z 12001KT 02/M14 A3058 RMK A01 T00191136  RH  031%=      5-min Rain = 0
KOD1 131916Z 09002KT 02/M14 A3058 RMK A01 T00211138  RH  030%=      5-min Rain = 0
KOD1 131917Z 07002KT 02/M14 A3058 RMK A01 T00221137  RH  030%=      5-min Rain = 0
KOD1 131918Z 02003KT 02/M14 A3058 RMK A01 T00221137  RH  030%=      5-min Rain = 0
KOD1 131919Z 01005KT 02/M14 A3057 RMK A01 T00231136  RH  030%=      5-min Rain = 0
KOD1 131920Z 01004KT 02/M14 A3057 RMK A01 T00231137  RH  030%=      5-min Rain = 0
KOD1 131921Z 03002KT 02/M14 A3057 RMK A01 T00231136  RH  030%=      5-min Rain = 0
KOD1 131922Z 06001KT 02/M14 A3057 RMK A01 T00241135  RH  030%=      5-min Rain = 0
KOD1 131923Z 04002KT 02/M14 A3057 RMK A01 T00231137  RH  030%=      5-min Rain = 0
KOD1 131924Z 31004KT 02/M14 A3057 RMK A01 T00241136  RH  030%=      5-min Rain = 0
KOD1 131925Z 31002KT 02/M14 A3057 RMK A01 T00241137  RH  029%=      5-min Rain = 0
KOD1 131926Z 00002KT 02/M14 A3057 RMK A01 T00241136  RH  029%=      5-min Rain = 0
KOD1 131927Z 35005KT 03/M14 A3057 RMK A01 T00251135  RH  029%=      5-min Rain = 0
KOD1 131928Z 35003KT 03/M14 A3057 RMK A01 T00251138  RH  029%=      5-min Rain = 0
KOD1 131929Z 29001KT 02/M14 A3057 RMK A01 T00241136  RH  029%=      5-min Rain = 0
KOD1 131930Z 21001KT 03/M14 A3057 RMK A01 T00251135  RH  030%=      5-min Rain = 0
KOD1 131931Z 01002KT 03/M13 A3057 RMK A01 T00271134  RH  030%=      5-min Rain = 0
KOD1 131932Z 01004KT 03/M14 A3056 RMK A01 T00281135  RH  029%=      5-min Rain = 0
KOD1 131933Z 02004KT 03/M14 A3056 RMK A01 T00281136  RH  029%=      5-min Rain = 0
KOD1 131934Z 36003KT 03/M14 A3056 RMK A01 T00271136  RH  029%=      5-min Rain = 0
KOD1 131935Z 34002KT 03/M14 A3056 RMK A01 T00271137  RH  029%=      5-min Rain = 0
KOD1 131936Z 02002KT 03/M14 A3056 RMK A01 T00271137  RH  029%=      5-min Rain = 0
KOD1 131937Z 03002KT 03/M14 A3056 RMK A01 T00271136  RH  029%=      5-min Rain = 0
KOD1 131938Z 36001KT 03/M14 A3056 RMK A01 T00271137  RH  029%=      5-min Rain = 0
KOD1 131939Z 10001KT 03/M14 A3056 RMK A01 T00261137  RH  029%=      5-min Rain = 0
KOD1 131940Z 09002KT 03/M14 A3056 RMK A01 T00261137  RH  029%=      5-min Rain = 0
KOD1 131941Z 10001KT 03/M14 A3055 RMK A01 T00261135  RH  029%=      5-min Rain = 0
KOD1 131942Z 07001KT 03/M13 A3055 RMK A01 T00281134  RH  029%=      5-min Rain = 0
KOD1 131943Z 02001KT 03/M13 A3055 RMK A01 T00301134  RH  029%=      5-min Rain = 0
KOD1 131944Z 33003KT 03/M14 A3055 RMK A01 T00321135  RH  028%=      5-min Rain = 0
KOD1 131945Z 34004KT 03/M14 A3055 RMK A01 T00331136  RH  028%=      5-min Rain = 0
KOD1 131946Z 33003KT 03/M14 A3055 RMK A01 T00331136  RH  028%=      5-min Rain = 0
KOD1 131947Z 31002KT 03/M14 A3055 RMK A01 T00321136  RH  028%=      5-min Rain = 0
KOD1 131948Z 31002KT 03/M14 A3055 RMK A01 T00321135  RH  028%=      5-min Rain = 0
KOD1 131949Z 34001KT 03/M14 A3055 RMK A01 T00331136  RH  028%=      5-min Rain = 0
KOD1 131950Z 02002KT 03/M13 A3055 RMK A01 T00331134  RH  028%=      5-min Rain = 0
KOD1 131951Z 03001KT 03/M14 A3055 RMK A01 T00341135  RH  028%=      5-min Rain = 0
KOD1 131952Z 01002KT 03/M14 A3055 RMK A01 T00331137  RH  028%=      5-min Rain = 0
KOD1 131953Z 33003KT 03/M14 A3055 RMK A01 T00331135  RH  028%=      5-min Rain = 0
KOD1 131954Z 35006KT 03/M14 A3055 RMK A01 T00341136  RH  028%=      5-min Rain = 0
KOD1 131955Z 05002KT 03/M14 A3055 RMK A01 T00331135  RH  028%=      5-min Rain = 0
KOD1 131956Z 15002KT 03/M13 A3054 RMK A01 T00341134  RH  028%=      5-min Rain = 0
KOD1 131957Z 20004KT 03/M13 A3054 RMK A01 T00341134  RH  028%=      5-min Rain = 0
KOD1 131958Z 20004KT 03/M14 A3054 RMK A01 T00331135  RH  028%=      5-min Rain = 0
KOD1 131959Z 19005KT 03/M13 A3054 RMK A01 T00331133  RH  028%=      5-min Rain = 0
KOD1 132000Z 21004KT 03/M14 A3054 RMK A01 T00331137  RH  028%=      5-min Rain = 0
KOD1 132001Z 22003KT 03/M14 A3054 RMK A01 T00311137  RH  028%=      5-min Rain = 0
KOD1 132002Z 13003KT 03/M13 A3054 RMK A01 T00301134  RH  029%=      5-min Rain = 0
KOD1 132003Z 12004KT 03/M14 A3054 RMK A01 T00291137  RH  028%=      5-min Rain = 0
KOD1 132004Z 16001KT 03/M14 A3054 RMK A01 T00281135  RH  029%=      5-min Rain = 0
KOD1 132005Z 10002KT 03/M13 A3054 RMK A01 T00301131  RH  029%=      5-min Rain = 0
KOD1 132006Z 09003KT 03/M14 A3054 RMK A01 T00301135  RH  028%=      5-min Rain = 0
KOD1 132007Z 16001KT 03/M13 A3054 RMK A01 T00301133  RH  029%=      5-min Rain = 0
KOD1 132008Z 21003KT 03/M13 A3054 RMK A01 T00321130  RH  029%=      5-min Rain = 0
KOD1 132009Z 21004KT 03/M13 A3054 RMK A01 T00341132  RH  028%=      5-min Rain = 0
KOD1 132010Z 20004KT 03/M13 A3054 RMK A01 T00341131  RH  029%=      5-min Rain = 0
KOD1 132011Z 21003KT 03/M13 A3053 RMK A01 T00331132  RH  029%=      5-min Rain = 0
KOD1 132012Z 24002KT 03/M13 A3053 RMK A01 T00321133  RH  029%=      5-min Rain = 0
KOD1 132013Z 23003KT 03/M13 A3053 RMK A01 T00331132  RH  029%=      5-min Rain = 0
KOD1 132014Z 17003KT 03/M13 A3053 RMK A01 T00331132  RH  029%=      5-min Rain = 0
KOD1 132015Z 19003KT 03/M13 A3053 RMK A01 T00331131  RH  029%=      5-min Rain = 0
KOD1 132016Z 17003KT 03/M13 A3053 RMK A01 T00331131  RH  029%=      5-min Rain = 0
KOD1 132017Z 20005KT 03/M13 A3053 RMK A01 T00331130  RH  029%=      5-min Rain = 0
KOD1 132018Z 20006KT 03/M13 A3053 RMK A01 T00341132  RH  028%=      5-min Rain = 0
KOD1 132019Z 19004KT 03/M13 A3053 RMK A01 T00341132  RH  028%=      5-min Rain = 0
KOD1 132020Z 18003KT 03/M13 A3053 RMK A01 T00331132  RH  029%=      5-min Rain = 0
KOD1 132021Z 17002KT 03/M13 A3053 RMK A01 T00331132  RH  029%=      5-min Rain = 0
KOD1 132022Z 19000KT 03/M13 A3053 RMK A01 T00331131  RH  029%=      5-min Rain = 0
KOD1 132023Z 01001KT 03/M13 A3053 RMK A01 T00341133  RH  028%=      5-min Rain = 0
KOD1 132024Z 07001KT 03/M13 A3053 RMK A01 T00331132  RH  029%=      5-min Rain = 0
KOD1 132025Z 13004KT 03/M13 A3053 RMK A01 T00331132  RH  029%=      5-min Rain = 0
KOD1 132026Z 14003KT 03/M13 A3052 RMK A01 T00321131  RH  029%=      5-min Rain = 0
KOD1 132027Z 13002KT 03/M13 A3052 RMK A01 T00341130  RH  029%=      5-min Rain = 0
KOD1 132028Z 10001KT 04/M13 A3052 RMK A01 T00351132  RH  028%=      5-min Rain = 0
KOD1 132029Z 16002KT 04/M13 A3052 RMK A01 T00361130  RH  029%=      5-min Rain = 0
KOD1 132030Z 21002KT 04/M13 A3052 RMK A01 T00371131  RH  028%=      5-min Rain = 0
KOD1 132031Z 21002KT 04/M13 A3052 RMK A01 T00371130  RH  028%=      5-min Rain = 0
KOD1 132032Z 20002KT 04/M13 A3052 RMK A01 T00381129  RH  028%=      5-min Rain = 0
KOD1 132033Z 21003KT 04/M13 A3052 RMK A01 T00391129  RH  028%=      5-min Rain = 0
KOD1 132034Z 19005KT 04/M13 A3052 RMK A01 T00401130  RH  028%=      5-min Rain = 0
KOD1 132035Z 19004KT 04/M13 A3052 RMK A01 T00391128  RH  028%=      5-min Rain = 0
KOD1 132036Z 22002KT 04/M13 A3052 RMK A01 T00401128  RH  028%=      5-min Rain = 0
KOD1 132037Z 26003KT 04/M13 A3052 RMK A01 T00411128  RH  028%=      5-min Rain = 0
KOD1 132038Z 23006KT 04/M13 A3052 RMK A01 T00421127  RH  028%=      5-min Rain = 0
KOD1 132039Z 21005KT 04/M13 A3052 RMK A01 T00411128  RH  028%=      5-min Rain = 0
KOD1 132040Z 21003KT 04/M13 A3052 RMK A01 T00401127  RH  028%=      5-min Rain = 0
KOD1 132041Z 22005KT 04/M13 A3052 RMK A01 T00411126  RH  028%=      5-min Rain = 0
KOD1 132042Z 23006KT 04/M13 A3052 RMK A01 T00411129  RH  028%=      5-min Rain = 0
KOD1 132043Z 22006KT 04/M13 A3052 RMK A01 T00421128  RH  028%=      5-min Rain = 0
KOD1 132044Z 21005KT 04/M13 A3052 RMK A01 T00411127  RH  028%=      5-min Rain = 0
KOD1 132045Z 23005KT 04/M13 A3052 RMK A01 T00411127  RH  028%=      5-min Rain = 0
KOD1 132046Z 23005KT 04/M13 A3052 RMK A01 T00421129  RH  028%=      5-min Rain = 0
KOD1 132047Z 27003KT 04/M13 A3052 RMK A01 T00401128  RH  028%=      5-min Rain = 0
KOD1 132048Z 23004KT 04/M13 A3052 RMK A01 T00411126  RH  028%=      5-min Rain = 0
KOD1 132049Z 24004KT 04/M13 A3052 RMK A01 T00421126  RH  028%=      5-min Rain = 0
KOD1 132050Z 23004KT 04/M13 A3052 RMK A01 T00421127  RH  028%=      5-min Rain = 0
KOD1 132051Z 24004KT 04/M13 A3052 RMK A01 T00421128  RH  028%=      5-min Rain = 0
KOD1 132052Z 27002KT 04/M13 A3051 RMK A01 T00421127  RH  028%=      5-min Rain = 0
KOD1 132053Z 28002KT 04/M13 A3051 RMK A01 T00431129  RH  028%=      5-min Rain = 0
KOD1 132054Z 25004KT 04/M13 A3051 RMK A01 T00431129  RH  028%=      5-min Rain = 0
KOD1 132055Z 23004KT 04/M13 A3051 RMK A01 T00431130  RH  027%=      5-min Rain = 0
KOD1 132056Z 21006KT 04/M13 A3051 RMK A01 T00421130  RH  027%=      5-min Rain = 0
KOD1 132057Z 22006KT 04/M13 A3051 RMK A01 T00421131  RH  027%=      5-min Rain = 0
KOD1 132058Z 21004KT 04/M13 A3051 RMK A01 T00411131  RH  027%=      5-min Rain = 0
KOD1 132059Z 19003KT 04/M13 A3051 RMK A01 T00411130  RH  028%=      5-min Rain = 0
KOD1 132100Z 20005KT 04/M13 A3051 RMK A01 T00411130  RH  028%=      5-min Rain = 0
KOD1 132101Z 20005KT 04/M13 A3051 RMK A01 T00431130  RH  027%=      5-min Rain = 0
KOD1 132102Z 19005KT 04/M13 A3051 RMK A01 T00421131  RH  027%=      5-min Rain = 0
KOD1 132103Z 20005KT 04/M13 A3051 RMK A01 T00421132  RH  027%=      5-min Rain = 0
KOD1 132104Z 21005KT 04/M13 A3051 RMK A01 T00411131  RH  027%=      5-min Rain = 0
KOD1 132105Z 22004KT 04/M13 A3051 RMK A01 T00401130  RH  028%=      5-min Rain = 0
KOD1 132106Z 21003KT 04/M13 A3051 RMK A01 T00411131  RH  027%=      5-min Rain = 0
KOD1 132107Z 21004KT 04/M13 A3051 RMK A01 T00421130  RH  027%=      5-min Rain = 0
KOD1 132108Z 20002KT 04/M13 A3051 RMK A01 T00421131  RH  027%=      5-min Rain = 0
KOD1 132109Z 21004KT 04/M13 A3051 RMK A01 T00421131  RH  027%=      5-min Rain = 0
KOD1 132110Z 22004KT 04/M13 A3051 RMK A01 T00411131  RH  027%=      5-min Rain = 0
KOD1 132111Z 22005KT 04/M13 A3051 RMK A01 T00401130  RH  028%=      5-min Rain = 0
KOD1 132112Z 22004KT 04/M13 A3051 RMK A01 T00401129  RH  028%=      5-min Rain = 0
KOD1 132113Z 21005KT 04/M13 A3051 RMK A01 T00401129  RH  028%=      5-min Rain = 0
KOD1 132114Z 20004KT 04/M13 A3051 RMK A01 T00401130  RH  028%=      5-min Rain = 0
KOD1 132115Z 21003KT 04/M13 A3051 RMK A01 T00411128  RH  028%=      5-min Rain = 0
KOD1 132116Z 22003KT 04/M13 A3051 RMK A01 T00431127  RH  028%=      5-min Rain = 0
KOD1 132117Z 25005KT 05/M13 A305 RMK A01 T00451128  RH  027%=      5-min Rain = 0
KOD1 132118Z 23006KT 05/M13 A305 RMK A01 T00461128  RH  027%=      5-min Rain = 0
KOD1 132119Z 23005KT 05/M13 A305 RMK A01 T00471128  RH  027%=      5-min Rain = 0
KOD1 132120Z 23004KT 05/M13 A305 RMK A01 T00471129  RH  027%=      5-min Rain = 0
KOD1 132121Z 24004KT 05/M13 A305 RMK A01 T00461129  RH  027%=      5-min Rain = 0
KOD1 132122Z 23003KT 05/M13 A305 RMK A01 T00451128  RH  027%=      5-min Rain = 0
KOD1 132123Z 25004KT 05/M13 A305 RMK A01 T00461127  RH  027%=      5-min Rain = 0
KOD1 132124Z 21005KT 05/M13 A305 RMK A01 T00471127  RH  027%=      5-min Rain = 0
KOD1 132125Z 20005KT 05/M13 A305 RMK A01 T00481126  RH  027%=      5-min Rain = 0
KOD1 132126Z 19005KT 05/M13 A305 RMK A01 T00481128  RH  027%=      5-min Rain = 0
KOD1 132127Z 18003KT 05/M13 A305 RMK A01 T00461129  RH  027%=      5-min Rain = 0
KOD1 132128Z 20002KT 05/M13 A305 RMK A01 T00451129  RH  027%=      5-min Rain = 0
KOD1 132129Z 19002KT 05/M13 A305 RMK A01 T00461128  RH  027%=      5-min Rain = 0
KOD1 132130Z 18003KT 05/M13 A305 RMK A01 T00461128  RH  027%=      5-min Rain = 0
KOD1 132131Z 16002KT 05/M13 A305 RMK A01 T00461128  RH  027%=      5-min Rain = 0
KOD1 132132Z 17001KT 05/M13 A305 RMK A01 T00461128  RH  027%=      5-min Rain = 0
KOD1 132133Z 19002KT 05/M13 A305 RMK A01 T00471127  RH  027%=      5-min Rain = 0
KOD1 132134Z 19004KT 05/M13 A305 RMK A01 T00461129  RH  027%=      5-min Rain = 0
KOD1 132135Z 17002KT 05/M13 A305 RMK A01 T00451128  RH  027%=      5-min Rain = 0
KOD1 132136Z 20001KT 05/M13 A3049 RMK A01 T00451128  RH  027%=      5-min Rain = 0
KOD1 132137Z 20001KT 05/M13 A3049 RMK A01 T00461128  RH  027%=      5-min Rain = 0
KOD1 132138Z 14001KT 05/M13 A3049 RMK A01 T00461125  RH  028%=      5-min Rain = 0
KOD1 132139Z 13002KT 05/M13 A3049 RMK A01 T00471127  RH  027%=      5-min Rain = 0
KOD1 132140Z 16001KT 05/M13 A3049 RMK A01 T00491125  RH  027%=      5-min Rain = 0
KOD1 132141Z 18003KT 05/M13 A3049 RMK A01 T00501125  RH  027%=      5-min Rain = 0
KOD1 132142Z 21004KT 05/M13 A3049 RMK A01 T00501127  RH  026%=      5-min Rain = 0
KOD1 132143Z 19002KT 05/M13 A3049 RMK A01 T00491126  RH  027%=      5-min Rain = 0
KOD1 132144Z 20004KT 05/M13 A3049 RMK A01 T00501125  RH  027%=      5-min Rain = 0
KOD1 132145Z 20005KT 05/M13 A3049 RMK A01 T00501127  RH  026%=      5-min Rain = 0
KOD1 132146Z 23003KT 05/M13 A3049 RMK A01 T00501127  RH  026%=      5-min Rain = 0
KOD1 132147Z 22002KT 05/M13 A3049 RMK A01 T00501127  RH  026%=      5-min Rain = 0
KOD1 132148Z 22005KT 05/M13 A3049 RMK A01 T00511127  RH  026%=      5-min Rain = 0
KOD1 132149Z 23005KT 05/M13 A3049 RMK A01 T00511127  RH  026%=      5-min Rain = 0
KOD1 132150Z 20003KT 05/M13 A3049 RMK A01 T00511127  RH  026%=      5-min Rain = 0
KOD1 132151Z 23003KT 05/M13 A3049 RMK A01 T00511128  RH  026%=      5-min Rain = 0
KOD1 132152Z 21004KT 05/M13 A3049 RMK A01 T00501129  RH  026%=      5-min Rain = 0
KOD1 132153Z 20004KT 05/M13 A3049 RMK A01 T00491129  RH  026%=      5-min Rain = 0
KOD1 132154Z 20004KT 05/M13 A3049 RMK A01 T00481128  RH  027%=      5-min Rain = 0
KOD1 132155Z 19002KT 05/M13 A3049 RMK A01 T00471129  RH  027%=      5-min Rain = 0
KOD1 132156Z 20003KT 05/M13 A3049 RMK A01 T00471128  RH  027%=      5-min Rain = 0
KOD1 132157Z 21003KT 05/M13 A3049 RMK A01 T00481128  RH  027%=      5-min Rain = 0
KOD1 132158Z 17003KT 05/M13 A3049 RMK A01 T00481129  RH  026%=      5-min Rain = 0
KOD1 132159Z 17002KT 05/M13 A3049 RMK A01 T00481129  RH  026%=      5-min Rain = 0
KOD1 132200Z 21004KT 05/M13 A3049 RMK A01 T00491127  RH  027%=      5-min Rain = 0
KOD1 132201Z 18003KT 05/M13 A3048 RMK A01 T00491129  RH  026%=      5-min Rain = 0
KOD1 132202Z 15003KT 05/M13 A3048 RMK A01 T00491128  RH  027%=      5-min Rain = 0
KOD1 132203Z 14003KT 05/M13 A3048 RMK A01 T00491130  RH  026%=      5-min Rain = 0
KOD1 132204Z 14001KT 05/M13 A3048 RMK A01 T00491128  RH  026%=      5-min Rain = 0
KOD1 132205Z 13001KT 05/M13 A3048 RMK A01 T00501127  RH  026%=      5-min Rain = 0
KOD1 132206Z 13002KT 05/M13 A3048 RMK A01 T00511129  RH  026%=      5-min Rain = 0
KOD1 132207Z 09001KT 05/M13 A3048 RMK A01 T00511130  RH  026%=      5-min Rain = 0
KOD1 132208Z 09002KT 05/M13 A3048 RMK A01 T00511130  RH  026%=      5-min Rain = 0
KOD1 132209Z 13001KT 05/M13 A3048 RMK A01 T00511130  RH  026%=      5-min Rain = 0
KOD1 132210Z 12002KT 05/M13 A3048 RMK A01 T00521129  RH  026%=      5-min Rain = 0
KOD1 132211Z 14002KT 05/M13 A3048 RMK A01 T00521129  RH  026%=      5-min Rain = 0
KOD1 132212Z 13002KT 05/M13 A3048 RMK A01 T00521130  RH  025%=      5-min Rain = 0
KOD1 132213Z 13001KT 05/M13 A3048 RMK A01 T00521129  RH  026%=      5-min Rain = 0
KOD1 132214Z 15001KT 05/M13 A3048 RMK A01 T00531128  RH  026%=      5-min Rain = 0
KOD1 132215Z 15002KT 05/M13 A3048 RMK A01 T00541128  RH  026%=      5-min Rain = 0
KOD1 132216Z 15003KT 06/M13 A3048 RMK A01 T00551130  RH  025%=      5-min Rain = 0
KOD1 132217Z 14003KT 05/M13 A3048 RMK A01 T00531130  RH  025%=      5-min Rain = 0
KOD1 132218Z 13004KT 05/M13 A3048 RMK A01 T00521131  RH  025%=      5-min Rain = 0
KOD1 132219Z 14003KT 05/M13 A3048 RMK A01 T00501131  RH  026%=      5-min Rain = 0
KOD1 132220Z 14003KT 05/M13 A3048 RMK A01 T00491131  RH  026%=      5-min Rain = 0
KOD1 132221Z 15002KT 05/M13 A3048 RMK A01 T00491130  RH  026%=      5-min Rain = 0
KOD1 132222Z 13002KT 05/M13 A3048 RMK A01 T00501130  RH  026%=      5-min Rain = 0
KOD1 132223Z 14002KT 05/M13 A3048 RMK A01 T00501130  RH  026%=      5-min Rain = 0
KOD1 132224Z 12002KT 05/M13 A3047 RMK A01 T00501130  RH  026%=      5-min Rain = 0
KOD1 132225Z 12004KT 05/M13 A3047 RMK A01 T00501130  RH  026%=      5-min Rain = 0
KOD1 132226Z 14004KT 05/M13 A3047 RMK A01 T00501130  RH  026%=      5-min Rain = 0
KOD1 132227Z 13004KT 05/M13 A3047 RMK A01 T00501131  RH  026%=      5-min Rain = 0
KOD1 132228Z 12004KT 05/M13 A3047 RMK A01 T00491131  RH  026%=      5-min Rain = 0
KOD1 132229Z 14005KT 05/M13 A3047 RMK A01 T00491130  RH  026%=      5-min Rain = 0
KOD1 132230Z 13005KT 05/M13 A3047 RMK A01 T00481131  RH  026%=      5-min Rain = 0
KOD1 132231Z 14005KT 05/M13 A3047 RMK A01 T00481129  RH  026%=      5-min Rain = 0
KOD1 132232Z 12004KT 05/M13 A3048 RMK A01 T00481131  RH  026%=      5-min Rain = 0
KOD1 132233Z 11003KT 05/M13 A3048 RMK A01 T00471130  RH  026%=      5-min Rain = 0
KOD1 132234Z 08003KT 05/M13 A3048 RMK A01 T00471131  RH  026%=      5-min Rain = 0
KOD1 132235Z 08002KT 05/M13 A3048 RMK A01 T00471130  RH  026%=      5-min Rain = 0
KOD1 132236Z 13002KT 05/M13 A3047 RMK A01 T00471129  RH  027%=      5-min Rain = 0
KOD1 132237Z 16005KT 05/M13 A3047 RMK A01 T00481129  RH  027%=      5-min Rain = 0
KOD1 132238Z 17005KT 05/M13 A3047 RMK A01 T00481128  RH  027%=      5-min Rain = 0
KOD1 132239Z 16005KT 05/M13 A3047 RMK A01 T00481127  RH  027%=      5-min Rain = 0
KOD1 132240Z 15006KT 05/M13 A3048 RMK A01 T00481129  RH  026%=      5-min Rain = 0
KOD1 132241Z 16003KT 05/M13 A3048 RMK A01 T00471129  RH  027%=      5-min Rain = 0
KOD1 132242Z 13004KT 05/M13 A3047 RMK A01 T00471129  RH  027%=      5-min Rain = 0
KOD1 132243Z 14004KT 05/M13 A3047 RMK A01 T00471129  RH  027%=      5-min Rain = 0
KOD1 132244Z 13005KT 05/M13 A3047 RMK A01 T00471128  RH  027%=      5-min Rain = 0
KOD1 132245Z 15006KT 05/M13 A3047 RMK A01 T00471129  RH  027%=      5-min Rain = 0
KOD1 132246Z 14006KT 05/M13 A3047 RMK A01 T00461128  RH  027%=      5-min Rain = 0
KOD1 132247Z 14006KT 05/M13 A3047 RMK A01 T00471128  RH  027%=      5-min Rain = 0
KOD1 132248Z 16004KT 05/M13 A3047 RMK A01 T00461129  RH  027%=      5-min Rain = 0
KOD1 132249Z 15004KT 05/M13 A3047 RMK A01 T00461127  RH  027%=      5-min Rain = 0
KOD1 132250Z 13005KT 05/M13 A3047 RMK A01 T00461129  RH  027%=      5-min Rain = 0
KOD1 132251Z 13006KT 05/M13 A3047 RMK A01 T00451129  RH  027%=      5-min Rain = 0
KOD1 132252Z 13005KT 05/M13 A3047 RMK A01 T00451129  RH  027%=      5-min Rain = 0
KOD1 132253Z 14005KT 04/M13 A3047 RMK A01 T00441128  RH  027%=      5-min Rain = 0
KOD1 132254Z 15003KT 05/M13 A3047 RMK A01 T00451128  RH  027%=      5-min Rain = 0
KOD1 132255Z 15004KT 05/M13 A3047 RMK A01 T00461126  RH  027%=      5-min Rain = 0
KOD1 132256Z 16004KT 05/M13 A3047 RMK A01 T00461127  RH  027%=      5-min Rain = 0
KOD1 132257Z 18005KT 05/M13 A3047 RMK A01 T00471127  RH  027%=      5-min Rain = 0
KOD1 132258Z 17005KT 05/M13 A3047 RMK A01 T00461127  RH  027%=      5-min Rain = 0
KOD1 132259Z 16005KT 05/M13 A3047 RMK A01 T00461127  RH  027%=      5-min Rain = 0
KOD1 132300Z 15005KT 05/M13 A3047 RMK A01 T00451127  RH  027%=      5-min Rain = 0
KOD1 132301Z 15004KT 05/M13 A3047 RMK A01 T00451126  RH  027%=      5-min Rain = 0
KOD1 132302Z 16005KT 05/M13 A3047 RMK A01 T00451127  RH  027%=      5-min Rain = 0
KOD1 132303Z 16005KT 05/M13 A3046 RMK A01 T00451127  RH  027%=      5-min Rain = 0
KOD1 132304Z 15005KT 05/M13 A3046 RMK A01 T00451127  RH  027%=      5-min Rain = 0
KOD1 132305Z 15005KT 04/M13 A3047 RMK A01 T00441127  RH  028%=      5-min Rain = 0
KOD1 132306Z 14006KT 04/M13 A3047 RMK A01 T00441127  RH  028%=      5-min Rain = 0
KOD1 132307Z 14005KT 04/M13 A3047 RMK A01 T00431128  RH  028%=      5-min Rain = 0
KOD1 132308Z 15004KT 04/M13 A3047 RMK A01 T00431127  RH  028%=      5-min Rain = 0
KOD1 132309Z 15006KT 04/M13 A3047 RMK A01 T00431127  RH  028%=      5-min Rain = 0
KOD1 132310Z 14005KT 04/M13 A3047 RMK A01 T00431127  RH  028%=      5-min Rain = 0
KOD1 132311Z 16004KT 04/M13 A3047 RMK A01 T00431127  RH  028%=      5-min Rain = 0
KOD1 132312Z 15005KT 04/M13 A3047 RMK A01 T00431127  RH  028%=      5-min Rain = 0
KOD1 132313Z 14004KT 04/M13 A3047 RMK A01 T00431127  RH  028%=      5-min Rain = 0
KOD1 132314Z 14004KT 04/M13 A3047 RMK A01 T00421127  RH  028%=      5-min Rain = 0
KOD1 132315Z 14004KT 04/M13 A3047 RMK A01 T00421127  RH  028%=      5-min Rain = 0
KOD1 132316Z 14004KT 04/M13 A3047 RMK A01 T00421127  RH  028%=      5-min Rain = 0
KOD1 132317Z 14005KT 04/M13 A3046 RMK A01 T00411127  RH  028%=      5-min Rain = 0
KOD1 132318Z 14004KT 04/M13 A3046 RMK A01 T00411127  RH  028%=      5-min Rain = 0
KOD1 132319Z 13005KT 04/M13 A3046 RMK A01 T00411126  RH  028%=      5-min Rain = 0
KOD1 132320Z 12007KT 04/M13 A3046 RMK A01 T00401127  RH  028%=      5-min Rain = 0
KOD1 132321Z 13007KT 04/M13 A3046 RMK A01 T00391128  RH  028%=      5-min Rain = 0
KOD1 132322Z 13007KT 04/M13 A3046 RMK A01 T00381128  RH  029%=      5-min Rain = 0
KOD1 132323Z 13007KT 04/M13 A3046 RMK A01 T00381128  RH  029%=      5-min Rain = 0
KOD1 132324Z 12007KT 04/M13 A3046 RMK A01 T00371128  RH  029%=      5-min Rain = 0
KOD1 132325Z 12006KT 04/M13 A3046 RMK A01 T00361128  RH  029%=      5-min Rain = 0
KOD1 132326Z 12007KT 04/M13 A3046 RMK A01 T00361128  RH  029%=      5-min Rain = 0
KOD1 132327Z 12006KT 04/M13 A3046 RMK A01 T00351129  RH  029%=      5-min Rain = 0
KOD1 132328Z 13006KT 04/M13 A3046 RMK A01 T00351129  RH  029%=      5-min Rain = 0
KOD1 132329Z 13006KT 03/M13 A3046 RMK A01 T00341128  RH  029%=      5-min Rain = 0
KOD1 132330Z 12006KT 03/M13 A3046 RMK A01 T00341129  RH  029%=      5-min Rain = 0
KOD1 132331Z 12006KT 03/M13 A3046 RMK A01 T00331129  RH  029%=      5-min Rain = 0
KOD1 132332Z 12006KT 03/M13 A3046 RMK A01 T00331129  RH  029%=      5-min Rain = 0
KOD1 132333Z 13006KT 03/M13 A3046 RMK A01 T00321129  RH  030%=      5-min Rain = 0
KOD1 132334Z 13006KT 03/M13 A3046 RMK A01 T00321129  RH  030%=      5-min Rain = 0
KOD1 132335Z 12005KT 03/M13 A3046 RMK A01 T00321129  RH  030%=      5-min Rain = 0
KOD1 132336Z 12006KT 03/M13 A3046 RMK A01 T00311130  RH  030%=      5-min Rain = 0
KOD1 132337Z 12005KT 03/M13 A3046 RMK A01 T00301130  RH  030%=      5-min Rain = 0
KOD1 132338Z 13005KT 03/M13 A3046 RMK A01 T00301130  RH  030%=      5-min Rain = 0
KOD1 132339Z 13005KT 03/M13 A3046 RMK A01 T00291129  RH  030%=      5-min Rain = 0
KOD1 132340Z 14005KT 03/M13 A3046 RMK A01 T00291129  RH  030%=      5-min Rain = 0
KOD1 132341Z 13005KT 03/M13 A3046 RMK A01 T00291130  RH  030%=      5-min Rain = 0
KOD1 132342Z 13005KT 03/M13 A3046 RMK A01 T00281130  RH  030%=      5-min Rain = 0
KOD1 132343Z 13005KT 03/M13 A3046 RMK A01 T00281130  RH  030%=      5-min Rain = 0
KOD1 132344Z 13005KT 03/M13 A3046 RMK A01 T00271130  RH  030%=      5-min Rain = 0
KOD1 132345Z 13005KT 03/M13 A3046 RMK A01 T00271130  RH  031%=      5-min Rain = 0
KOD1 132346Z 13005KT 03/M13 A3046 RMK A01 T00261130  RH  031%=      5-min Rain = 0
KOD1 132347Z 13004KT 03/M13 A3046 RMK A01 T00251130  RH  031%=      5-min Rain = 0
KOD1 132348Z 13004KT 02/M13 A3046 RMK A01 T00241130  RH  031%=      5-min Rain = 0
KOD1 132349Z 14004KT 02/M13 A3046 RMK A01 T00241131  RH  031%=      5-min Rain = 0
KOD1 132350Z 14004KT 02/M13 A3046 RMK A01 T00231131  RH  031%=      5-min Rain = 0
KOD1 132351Z 14004KT 02/M13 A3046 RMK A01 T00221131  RH  031%=      5-min Rain = 0
KOD1 132352Z 14005KT 02/M13 A3046 RMK A01 T00221131  RH  031%=      5-min Rain = 0
KOD1 132353Z 13005KT 02/M13 A3046 RMK A01 T00211131  RH  031%=      5-min Rain = 0
KOD1 132354Z 13005KT 02/M13 A3046 RMK A01 T00201131  RH  032%=      5-min Rain = 0
KOD1 132355Z 13005KT 02/M13 A3046 RMK A01 T00191131  RH  032%=      5-min Rain = 0
KOD1 132356Z 13005KT 02/M13 A3046 RMK A01 T00181132  RH  032%=      5-min Rain = 0
KOD1 132357Z 13005KT 02/M13 A3046 RMK A01 T00171132  RH  032%=      5-min Rain = 0
KOD1 132358Z 13005KT 02/M13 A3046 RMK A01 T00161132  RH  032%=      5-min Rain = 0
KOD1 132359Z 13006KT 02/M13 A3046 RMK A01 T00151132  RH  032%=      5-min Rain = 0
KOD1 140000Z 13005KT 01/M13 A3046 RMK A01 T00141132  RH  033%=      5-min Rain = 0
KOD1 140001Z 13006KT 01/M13 A3046 RMK A01 T00141132  RH  033%=      5-min Rain = 0
KOD1 140002Z 14005KT 01/M13 A3046 RMK A01 T00131132  RH  033%=      5-min Rain = 0
KOD1 140003Z 13005KT 01/M13 A3046 RMK A01 T00121132  RH  033%=      5-min Rain = 0
KOD1 140004Z 14005KT 01/M13 A3046 RMK A01 T00121132  RH  033%=      5-min Rain = 0
KOD1 140005Z 13005KT 01/M13 A3046 RMK A01 T00111132  RH  033%=      5-min Rain = 0
KOD1 140006Z 14005KT 01/M13 A3046 RMK A01 T00111132  RH  034%=      5-min Rain = 0
KOD1 140007Z 14005KT 01/M13 A3046 RMK A01 T00111131  RH  034%=      5-min Rain = 0
KOD1 140008Z 14005KT 01/M13 A3046 RMK A01 T00101131  RH  034%=      5-min Rain = 0
KOD1 140009Z 13005KT 01/M13 A3046 RMK A01 T00101131  RH  034%=      5-min Rain = 0
KOD1 140010Z 14005KT 01/M13 A3046 RMK A01 T00101131  RH  034%=      5-min Rain = 0
KOD1 140011Z 14005KT 01/M13 A3046 RMK A01 T00091131  RH  034%=      5-min Rain = 0
KOD1 140012Z 14005KT 01/M13 A3046 RMK A01 T00091131  RH  034%=      5-min Rain = 0
KOD1 140013Z 15005KT 01/M13 A3046 RMK A01 T00091131  RH  034%=      5-min Rain = 0
KOD1 140014Z 15005KT 01/M13 A3046 RMK A01 T00081131  RH  035%=      5-min Rain = 0
KOD1 140015Z 15005KT 01/M13 A3046 RMK A01 T00071132  RH  035%=      5-min Rain = 0
KOD1 140016Z 15005KT 01/M13 A3046 RMK A01 T00061131  RH  035%=      5-min Rain = 0
KOD1 140017Z 15005KT 01/M13 A3046 RMK A01 T00051131  RH  035%=      5-min Rain = 0
KOD1 140018Z 15004KT 01/M13 A3046 RMK A01 T00051131  RH  035%=      5-min Rain = 0
KOD1 140019Z 15005KT 00/M13 A3046 RMK A01 T00041131  RH  036%=      5-min Rain = 0
KOD1 140020Z 15005KT 00/M13 A3046 RMK A01 T00031130  RH  036%=      5-min Rain = 0
KOD1 140021Z 15005KT 00/M13 A3046 RMK A01 T00021129  RH  037%=      5-min Rain = 0
KOD1 140022Z 15006KT 00/M13 A3046 RMK A01 T00011129  RH  037%=      5-min Rain = 0
KOD1 140023Z 14005KT 00/M13 A3046 RMK A01 T00011128  RH  037%=      5-min Rain = 0
KOD1 140024Z 14005KT 00/13 A3046 RMK A01 T00000-128  RH  037%=      5-min Rain = 0
KOD1 140025Z 15005KT 00/13 A3046 RMK A01 T00-00-129  RH  037%=      5-min Rain = 0
KOD1 140026Z 14005KT M00/M13 A3046 RMK A01 T10011129  RH  037%=      5-min Rain = 0
KOD1 140027Z 15005KT M00/M13 A3046 RMK A01 T10011129  RH  038%=      5-min Rain = 0
KOD1 140028Z 14005KT M00/M13 A3046 RMK A01 T10021128  RH  038%=      5-min Rain = 0
KOD1 140029Z 14005KT M00/M13 A3046 RMK A01 T10021128  RH  038%=      5-min Rain = 0
KOD1 140030Z 14005KT M00/M13 A3046 RMK A01 T10021128  RH  038%=      5-min Rain = 0
KOD1 140031Z 14005KT M00/M13 A3046 RMK A01 T10031128  RH  038%=      5-min Rain = 0
KOD1 140032Z 14005KT M00/M13 A3046 RMK A01 T10031128  RH  038%=      5-min Rain = 0
KOD1 140033Z 15005KT M00/M13 A3046 RMK A01 T10031127  RH  039%=      5-min Rain = 0
KOD1 140034Z 14005KT M00/M13 A3046 RMK A01 T10021126  RH  039%=      5-min Rain = 0
KOD1 140035Z 14005KT M00/M13 A3046 RMK A01 T10021127  RH  038%=      5-min Rain = 0
KOD1 140036Z 14005KT M00/M13 A3046 RMK A01 T10021128  RH  038%=      5-min Rain = 0
KOD1 140037Z 13005KT M00/M13 A3046 RMK A01 T10031128  RH  038%=      5-min Rain = 0
KOD1 140038Z 13004KT M00/M13 A3046 RMK A01 T10031129  RH  038%=      5-min Rain = 0
KOD1 140039Z 14004KT M00/M13 A3046 RMK A01 T10041129  RH  038%=      5-min Rain = 0
KOD1 140040Z 14005KT M01/M13 A3046 RMK A01 T10051128  RH  039%=      5-min Rain = 0
KOD1 140041Z 14005KT M01/M13 A3046 RMK A01 T10051128  RH  039%=      5-min Rain = 0
KOD1 140042Z 14005KT M01/M13 A3046 RMK A01 T10051127  RH  039%=      5-min Rain = 0
KOD1 140043Z 13005KT M01/M13 A3046 RMK A01 T10051126  RH  040%=      5-min Rain = 0
KOD1 140044Z 14005KT M00/M13 A3046 RMK A01 T10041125  RH  040%=      5-min Rain = 0
KOD1 140045Z 14005KT M00/M13 A3046 RMK A01 T10031125  RH  040%=      5-min Rain = 0
KOD1 140046Z 14005KT M00/M13 A3046 RMK A01 T10031125  RH  039%=      5-min Rain = 0
KOD1 140047Z 14004KT M00/M13 A3047 RMK A01 T10031125  RH  039%=      5-min Rain = 0
KOD1 140048Z 14004KT M00/M13 A3047 RMK A01 T10031126  RH  039%=      5-min Rain = 0
KOD1 140049Z 14004KT M00/M13 A3047 RMK A01 T10031125  RH  039%=      5-min Rain = 0
KOD1 140050Z 14004KT M00/M13 A3047 RMK A01 T10021125  RH  039%=      5-min Rain = 0
KOD1 140051Z 14004KT M00/M13 A3047 RMK A01 T10021125  RH  039%=      5-min Rain = 0
KOD1 140052Z 14005KT M00/M13 A3047 RMK A01 T10021125  RH  039%=      5-min Rain = 0
KOD1 140053Z 14005KT M00/M12 A3047 RMK A01 T10021124  RH  039%=      5-min Rain = 0
KOD1 140054Z 14005KT M00/M13 A3047 RMK A01 T10021125  RH  039%=      5-min Rain = 0
KOD1 140055Z 14005KT M00/M13 A3047 RMK A01 T10021125  RH  039%=      5-min Rain = 0
KOD1 140056Z 14005KT M00/M13 A3047 RMK A01 T10021126  RH  039%=      5-min Rain = 0
KOD1 140057Z 14005KT M00/M13 A3046 RMK A01 T10031126  RH  039%=      5-min Rain = 0
KOD1 140058Z 14005KT M00/M13 A3046 RMK A01 T10041126  RH  039%=      5-min Rain = 0
KOD1 140059Z 14005KT M00/M13 A3046 RMK A01 T10041127  RH  039%=      5-min Rain = 0
KOD1 140100Z 14004KT M01/M13 A3046 RMK A01 T10051127  RH  039%=      5-min Rain = 0
KOD1 140101Z 12005KT M01/M13 A3046 RMK A01 T10061126  RH  040%=      5-min Rain = 0
KOD1 140102Z 12005KT M01/M13 A3046 RMK A01 T10061125  RH  040%=      5-min Rain = 0
KOD1 140103Z 12005KT M01/M13 A3046 RMK A01 T10061126  RH  040%=      5-min Rain = 0
KOD1 140104Z 12006KT M01/M13 A3046 RMK A01 T10071125  RH  040%=      5-min Rain = 0
KOD1 140105Z 12006KT M01/M13 A3046 RMK A01 T10071125  RH  041%=      5-min Rain = 0
KOD1 140106Z 12007KT M01/M12 A3046 RMK A01 T10071124  RH  041%=      5-min Rain = 0
KOD1 140107Z 13007KT M01/M12 A3046 RMK A01 T10061124  RH  041%=      5-min Rain = 0
KOD1 140108Z 13007KT M01/M12 A3046 RMK A01 T10061123  RH  041%=      5-min Rain = 0
KOD1 140109Z 13007KT M01/M12 A3046 RMK A01 T10051122  RH  041%=      5-min Rain = 0
KOD1 140110Z 13007KT M00/M12 A3046 RMK A01 T10031121  RH  041%=      5-min Rain = 0
KOD1 140111Z 13007KT M00/M12 A3046 RMK A01 T10021121  RH  040%=      5-min Rain = 0
KOD1 140112Z 13007KT M00/M12 A3046 RMK A01 T10011121  RH  040%=      5-min Rain = 0
KOD1 140113Z 13007KT 00/12 A3046 RMK A01 T00-00-121  RH  040%=      5-min Rain = 0
KOD1 140114Z 12007KT 00/12 A3046 RMK A01 T00000-121  RH  039%=      5-min Rain = 0
KOD1 140115Z 12006KT 00/M12 A3046 RMK A01 T00011121  RH  039%=      5-min Rain = 0
KOD1 140116Z 13006KT 00/M12 A3046 RMK A01 T00021121  RH  039%=      5-min Rain = 0
KOD1 140117Z 12006KT 00/M12 A3046 RMK A01 T00021121  RH  039%=      5-min Rain = 0
KOD1 140118Z 13006KT 00/M12 A3046 RMK A01 T00021121  RH  039%=      5-min Rain = 0
KOD1 140119Z 12006KT 00/M12 A3046 RMK A01 T00021121  RH  039%=      5-min Rain = 0
KOD1 140120Z 12006KT 00/M12 A3046 RMK A01 T00021121  RH  039%=      5-min Rain = 0
KOD1 140121Z 12006KT 00/M12 A3046 RMK A01 T00021121  RH  039%=      5-min Rain = 0
KOD1 140122Z 12006KT 00/M12 A3046 RMK A01 T00021121  RH  039%=      5-min Rain = 0
KOD1 140123Z 12006KT 00/M12 A3046 RMK A01 T00021121  RH  039%=      5-min Rain = 0
KOD1 140124Z 12006KT 00/M12 A3046 RMK A01 T00021121  RH  039%=      5-min Rain = 0
KOD1 140125Z 12007KT 00/M12 A3046 RMK A01 T00021121  RH  039%=      5-min Rain = 0
KOD1 140126Z 12006KT 00/M12 A3046 RMK A01 T00021121  RH  039%=      5-min Rain = 0
KOD1 140127Z 12006KT 00/M12 A3046 RMK A01 T00021121  RH  039%=      5-min Rain = 0
KOD1 140128Z 12006KT 00/M12 A3046 RMK A01 T00021121  RH  039%=      5-min Rain = 0
KOD1 140129Z 12007KT 00/M12 A3046 RMK A01 T00021120  RH  039%=      5-min Rain = 0
KOD1 140130Z 12007KT 00/M12 A3046 RMK A01 T00031120  RH  039%=      5-min Rain = 0
KOD1 140131Z 12007KT 00/M12 A3046 RMK A01 T00031120  RH  039%=      5-min Rain = 0
KOD1 140132Z 12007KT 00/M12 A3046 RMK A01 T00031120  RH  039%=      5-min Rain = 0
KOD1 140133Z 12007KT 00/M12 A3046 RMK A01 T00041120  RH  039%=      5-min Rain = 0
KOD1 140134Z 12007KT 00/M12 A3046 RMK A01 T00041120  RH  039%=      5-min Rain = 0
KOD1 140135Z 12008KT 01/M12 A3046 RMK A01 T00051120  RH  039%=      5-min Rain = 0
KOD1 140136Z 12008KT 01/M12 A3045 RMK A01 T00051120  RH  039%=      5-min Rain = 0
KOD1 140137Z 12008KT 01/M12 A3045 RMK A01 T00051120  RH  039%=      5-min Rain = 0
KOD1 140138Z 12008KT 01/M12 A3045 RMK A01 T00061120  RH  038%=      5-min Rain = 0
KOD1 140139Z 12008KT 01/M12 A3045 RMK A01 T00061120  RH  038%=      5-min Rain = 0
KOD1 140140Z 12007KT 01/M12 A3045 RMK A01 T00061120  RH  038%=      5-min Rain = 0
KOD1 140141Z 13007KT 01/M12 A3045 RMK A01 T00061120  RH  038%=      5-min Rain = 0
KOD1 140142Z 13007KT 01/M12 A3045 RMK A01 T00061120  RH  038%=      5-min Rain = 0
KOD1 140143Z 13007KT 01/M12 A3045 RMK A01 T00061120  RH  039%=      5-min Rain = 0
KOD1 140144Z 13007KT 01/M12 A3045 RMK A01 T00051120  RH  039%=      5-min Rain = 0
KOD1 140145Z 13007KT 01/M12 A3045 RMK A01 T00051119  RH  039%=      5-min Rain = 0
KOD1 140146Z 13007KT 01/M12 A3045 RMK A01 T00051120  RH  039%=      5-min Rain = 0
KOD1 140147Z 13007KT 01/M12 A3045 RMK A01 T00051119  RH  039%=      5-min Rain = 0
KOD1 140148Z 13007KT 01/M12 A3045 RMK A01 T00051119  RH  039%=      5-min Rain = 0
KOD1 140149Z 13007KT 01/M12 A3045 RMK A01 T00051119  RH  039%=      5-min Rain = 0
KOD1 140150Z 13007KT 01/M12 A3045 RMK A01 T00051119  RH  039%=      5-min Rain = 0
KOD1 140151Z 13008KT 01/M12 A3045 RMK A01 T00051119  RH  039%=      5-min Rain = 0
KOD1 140152Z 13008KT 01/M12 A3045 RMK A01 T00051118  RH  039%=      5-min Rain = 0
KOD1 140153Z 13008KT 01/M12 A3045 RMK A01 T00051118  RH  039%=      5-min Rain = 0
KOD1 140154Z 13008KT 01/M12 A3045 RMK A01 T00051118  RH  039%=      5-min Rain = 0
KOD1 140155Z 13007KT 00/M12 A3045 RMK A01 T00041118  RH  039%=      5-min Rain = 0
KOD1 140156Z 13008KT 00/M12 A3045 RMK A01 T00041118  RH  039%=      5-min Rain = 0
KOD1 140157Z 13007KT 00/M12 A3045 RMK A01 T00041117  RH  040%=      5-min Rain = 0
KOD1 140158Z 13008KT 01/M12 A3045 RMK A01 T00051117  RH  040%=      5-min Rain = 0
KOD1 140159Z 13007KT 01/M12 A3046 RMK A01 T00051117  RH  039%=      5-min Rain = 0
KOD1 140200Z 13007KT 01/M12 A3046 RMK A01 T00051118  RH  039%=      5-min Rain = 0
KOD1 140201Z 13007KT 01/M12 A3046 RMK A01 T00051117  RH  039%=      5-min Rain = 0
KOD1 140202Z 12006KT 01/M12 A3046 RMK A01 T00051118  RH  039%=      5-min Rain = 0
KOD1 140203Z 13006KT 00/M12 A3046 RMK A01 T00041118  RH  040%=      5-min Rain = 0
KOD1 140204Z 13007KT 00/M12 A3046 RMK A01 T00041117  RH  040%=      5-min Rain = 0
KOD1 140205Z 13007KT 00/M12 A3046 RMK A01 T00041117  RH  040%=      5-min Rain = 0
KOD1 140206Z 13007KT 00/M12 A3046 RMK A01 T00031117  RH  040%=      5-min Rain = 0
KOD1 140207Z 13006KT 00/M12 A3046 RMK A01 T00031117  RH  040%=      5-min Rain = 0
KOD1 140208Z 13006KT 00/M12 A3046 RMK A01 T00031117  RH  040%=      5-min Rain = 0
KOD1 140209Z 13007KT 00/M12 A3046 RMK A01 T00021117  RH  040%=      5-min Rain = 0
KOD1 140210Z 13006KT 00/M12 A3046 RMK A01 T00021117  RH  040%=      5-min Rain = 0
KOD1 140211Z 12006KT 00/M12 A3046 RMK A01 T00021117  RH  041%=      5-min Rain = 0
KOD1 140212Z 13006KT 00/M12 A3046 RMK A01 T00011117  RH  041%=      5-min Rain = 0
KOD1 140213Z 13006KT 00/M12 A3046 RMK A01 T00011117  RH  041%=      5-min Rain = 0
KOD1 140214Z 13006KT 00/M12 A3046 RMK A01 T00011117  RH  041%=      5-min Rain = 0
KOD1 140215Z 12007KT 00/12 A3046 RMK A01 T00000-116  RH  041%=      5-min Rain = 0
KOD1 140216Z 12006KT 00/12 A3046 RMK A01 T00000-116  RH  041%=      5-min Rain = 0
KOD1 140217Z 13007KT 00/12 A3046 RMK A01 T00-00-116  RH  041%=      5-min Rain = 0
KOD1 140218Z 13006KT 00/12 A3046 RMK A01 T00-00-115  RH  042%=      5-min Rain = 0
KOD1 140219Z 13007KT 00/12 A3046 RMK A01 T00-00-115  RH  042%=      5-min Rain = 0
KOD1 140220Z 13007KT 00/12 A3046 RMK A01 T00-00-115  RH  042%=      5-min Rain = 0
KOD1 140221Z 13008KT 00/11 A3045 RMK A01 T00000-114  RH  042%=      5-min Rain = 0
KOD1 140222Z 13008KT 00/12 A3046 RMK A01 T00000-115  RH  042%=      5-min Rain = 0
KOD1 140223Z 13008KT 00/11 A3046 RMK A01 T00000-114  RH  042%=      5-min Rain = 0
KOD1 140224Z 13008KT 00/11 A3046 RMK A01 T00000-114  RH  042%=      5-min Rain = 0
KOD1 140225Z 13008KT 00/11 A3046 RMK A01 T00000-114  RH  042%=      5-min Rain = 0
KOD1 140226Z 13009KT 00/11 A3046 RMK A01 T00000-114  RH  042%=      5-min Rain = 0
KOD1 140227Z 13007KT 00/11 A3046 RMK A01 T00000-113  RH  042%=      5-min Rain = 0
KOD1 140228Z 13008KT 00/11 A3046 RMK A01 T00000-114  RH  042%=      5-min Rain = 0
KOD1 140229Z 13009KT 00/11 A3046 RMK A01 T00000-113  RH  042%=      5-min Rain = 0
KOD1 140230Z 13008KT 00/M11 A3046 RMK A01 T00011113  RH  042%=      5-min Rain = 0
KOD1 140231Z 13008KT 00/M11 A3046 RMK A01 T00011114  RH  042%=      5-min Rain = 0
KOD1 140232Z 13008KT 00/M11 A3046 RMK A01 T00011114  RH  042%=      5-min Rain = 0
KOD1 140233Z 13008KT 00/M11 A3046 RMK A01 T00011114  RH  042%=      5-min Rain = 0
KOD1 140234Z 13007KT 00/11 A3046 RMK A01 T00000-114  RH  042%=      5-min Rain = 0
KOD1 140235Z 13007KT 00/11 A3046 RMK A01 T00000-114  RH  042%=      5-min Rain = 0
KOD1 140236Z 14008KT 00/11 A3046 RMK A01 T00000-114  RH  042%=      5-min Rain = 0
KOD1 140237Z 13009KT 00/11 A3046 RMK A01 T00000-114  RH  042%=      5-min Rain = 0
KOD1 140238Z 14009KT 00/12 A3045 RMK A01 T00000-115  RH  042%=      5-min Rain = 0
KOD1 140239Z 14008KT 00/12 A3045 RMK A01 T00-00-115  RH  042%=      5-min Rain = 0
KOD1 140240Z 14007KT M00/M12 A3045 RMK A01 T10011115  RH  042%=      5-min Rain = 0
KOD1 140241Z 14007KT M00/M12 A3046 RMK A01 T10011115  RH  042%=      5-min Rain = 0
KOD1 140242Z 14007KT M00/M12 A3046 RMK A01 T10011115  RH  042%=      5-min Rain = 0
KOD1 140243Z 14007KT M00/M12 A3046 RMK A01 T10011116  RH  042%=      5-min Rain = 0
KOD1 140244Z 14008KT M00/M12 A3046 RMK A01 T10021116  RH  042%=      5-min Rain = 0
KOD1 140245Z 14008KT M00/M12 A3045 RMK A01 T10011116  RH  042%=      5-min Rain = 0
KOD1 140246Z 14008KT M00/M12 A3045 RMK A01 T10011116  RH  042%=      5-min Rain = 0
KOD1 140247Z 14008KT M00/M12 A3045 RMK A01 T10011116  RH  042%=      5-min Rain = 0
KOD1 140248Z 14008KT M00/M12 A3045 RMK A01 T10011116  RH  042%=      5-min Rain = 0
KOD1 140249Z 14008KT M00/M12 A3045 RMK A01 T10011116  RH  042%=      5-min Rain = 0
KOD1 140250Z 14008KT M00/M12 A3045 RMK A01 T10011117  RH  042%=      5-min Rain = 0
KOD1 140251Z 14007KT M00/M12 A3045 RMK A01 T10021117  RH  042%=      5-min Rain = 0
KOD1 140252Z 14007KT M00/M12 A3045 RMK A01 T10021117  RH  042%=      5-min Rain = 0
KOD1 140253Z 14008KT M00/M12 A3045 RMK A01 T10031117  RH  042%=      5-min Rain = 0
KOD1 140254Z 14007KT M00/M12 A3045 RMK A01 T10021117  RH  042%=      5-min Rain = 0
KOD1 140255Z 14007KT M00/M12 A3045 RMK A01 T10021117  RH  042%=      5-min Rain = 0
KOD1 140256Z 14007KT M00/M12 A3045 RMK A01 T10031117  RH  042%=      5-min Rain = 0
KOD1 140257Z 14008KT M00/M12 A3045 RMK A01 T10031117  RH  042%=      5-min Rain = 0
KOD1 140258Z 13007KT M00/M12 A3045 RMK A01 T10031117  RH  042%=      5-min Rain = 0
KOD1 140259Z 13008KT M00/M12 A3045 RMK A01 T10031117  RH  042%=      5-min Rain = 0
KOD1 140300Z 14008KT M00/M12 A3045 RMK A01 T10041117  RH  042%=      5-min Rain = 0
KOD1 140301Z 14007KT M00/M12 A3045 RMK A01 T10041117  RH  042%=      5-min Rain = 0
KOD1 140302Z 14008KT M00/M12 A3045 RMK A01 T10041117  RH  042%=      5-min Rain = 0
KOD1 140303Z 14007KT M00/M12 A3045 RMK A01 T10041117  RH  042%=      5-min Rain = 0
KOD1 140304Z 14008KT M00/M12 A3045 RMK A01 T10031118  RH  042%=      5-min Rain = 0
KOD1 140305Z 14007KT M00/M12 A3045 RMK A01 T10031118  RH  041%=      5-min Rain = 0
KOD1 140306Z 15007KT M00/M12 A3045 RMK A01 T10031118  RH  041%=      5-min Rain = 0
KOD1 140307Z 14007KT M00/M12 A3045 RMK A01 T10031118  RH  041%=      5-min Rain = 0
KOD1 140308Z 15006KT M00/M12 A3045 RMK A01 T10031118  RH  041%=      5-min Rain = 0
KOD1 140309Z 15006KT M00/M12 A3045 RMK A01 T10031119  RH  041%=      5-min Rain = 0
KOD1 140310Z 14007KT M00/M12 A3045 RMK A01 T10041118  RH  042%=      5-min Rain = 0
KOD1 140311Z 15005KT M00/M12 A3045 RMK A01 T10041119  RH  042%=      5-min Rain = 0
KOD1 140312Z 15005KT M00/M12 A3045 RMK A01 T10041119  RH  042%=      5-min Rain = 0
KOD1 140313Z 15006KT M00/M12 A3046 RMK A01 T10041119  RH  042%=      5-min Rain = 0
KOD1 140314Z 16007KT M00/M12 A3046 RMK A01 T10041118  RH  042%=      5-min Rain = 0
KOD1 140315Z 15007KT M01/M12 A3046 RMK A01 T10051118  RH  042%=      5-min Rain = 0
KOD1 140316Z 15007KT M01/M12 A3046 RMK A01 T10061118  RH  042%=      5-min Rain = 0
KOD1 140317Z 15007KT M01/M12 A3046 RMK A01 T10061118  RH  043%=      5-min Rain = 0
KOD1 140318Z 15006KT M01/M12 A3046 RMK A01 T10061118  RH  043%=      5-min Rain = 0
KOD1 140319Z 15006KT M01/M12 A3046 RMK A01 T10071118  RH  043%=      5-min Rain = 0
KOD1 140320Z 15007KT M01/M12 A3046 RMK A01 T10081117  RH  043%=      5-min Rain = 0
KOD1 140321Z 15006KT M01/M12 A3046 RMK A01 T10081117  RH  043%=      5-min Rain = 0
KOD1 140322Z 15006KT M01/M12 A3046 RMK A01 T10081117  RH  043%=      5-min Rain = 0
KOD1 140323Z 15006KT M01/M12 A3046 RMK A01 T10081117  RH  043%=      5-min Rain = 0
KOD1 140324Z 15006KT M01/M12 A3046 RMK A01 T10081117  RH  043%=      5-min Rain = 0
KOD1 140325Z 15006KT M01/M12 A3046 RMK A01 T10091118  RH  043%=      5-min Rain = 0
KOD1 140326Z 15006KT M01/M12 A3046 RMK A01 T10091118  RH  043%=      5-min Rain = 0
KOD1 140327Z 14006KT M01/M12 A3046 RMK A01 T10091118  RH  043%=      5-min Rain = 0
KOD1 140328Z 14006KT M01/M12 A3046 RMK A01 T10091118  RH  043%=      5-min Rain = 0
KOD1 140329Z 14007KT M01/M12 A3046 RMK A01 T10091118  RH  043%=      5-min Rain = 0
KOD1 140330Z 14007KT M01/M12 A3046 RMK A01 T10091117  RH  044%=      5-min Rain = 0
KOD1 140331Z 15007KT M01/M12 A3046 RMK A01 T10081117  RH  043%=      5-min Rain = 0
KOD1 140332Z 15007KT M01/M12 A3046 RMK A01 T10081118  RH  043%=      5-min Rain = 0
KOD1 140333Z 15007KT M01/M12 A3046 RMK A01 T10081118  RH  043%=      5-min Rain = 0
KOD1 140334Z 15007KT M01/M12 A3046 RMK A01 T10081118  RH  043%=      5-min Rain = 0
KOD1 140335Z 15008KT M01/M12 A3046 RMK A01 T10081118  RH  043%=      5-min Rain = 0
KOD1 140336Z 15007KT M01/M12 A3046 RMK A01 T10081118  RH  043%=      5-min Rain = 0
KOD1 140337Z 15007KT M01/M12 A3046 RMK A01 T10081118  RH  043%=      5-min Rain = 0
KOD1 140338Z 15008KT M01/M12 A3046 RMK A01 T10091118  RH  043%=      5-min Rain = 0
KOD1 140339Z 15007KT M01/M12 A3046 RMK A01 T10091118  RH  043%=      5-min Rain = 0
KOD1 140340Z 15007KT M01/M12 A3046 RMK A01 T10091117  RH  044%=      5-min Rain = 0
KOD1 140341Z 15007KT M01/M12 A3046 RMK A01 T10081118  RH  043%=      5-min Rain = 0
KOD1 140342Z 15007KT M01/M12 A3046 RMK A01 T10081118  RH  043%=      5-min Rain = 0
KOD1 140343Z 14007KT M01/M12 A3046 RMK A01 T10081118  RH  043%=      5-min Rain = 0
KOD1 140344Z 14006KT M01/M12 A3046 RMK A01 T10071118  RH  043%=      5-min Rain = 0
KOD1 140345Z 14006KT M01/M12 A3046 RMK A01 T10061118  RH  043%=      5-min Rain = 0
KOD1 140346Z 14006KT M01/M12 A3046 RMK A01 T10061118  RH  042%=      5-min Rain = 0
KOD1 140347Z 14008KT M01/M12 A3046 RMK A01 T10061119  RH  042%=      5-min Rain = 0
KOD1 140348Z 14007KT M01/M12 A3046 RMK A01 T10051119  RH  042%=      5-min Rain = 0
KOD1 140349Z 14007KT M00/M12 A3046 RMK A01 T10041119  RH  042%=      5-min Rain = 0
KOD1 140350Z 14007KT M00/M12 A3046 RMK A01 T10041119  RH  041%=      5-min Rain = 0
KOD1 140351Z 14007KT M00/M12 A3046 RMK A01 T10031119  RH  041%=      5-min Rain = 0
KOD1 140352Z 13007KT M00/M12 A3046 RMK A01 T10031120  RH  041%=      5-min Rain = 0
KOD1 140353Z 14007KT M00/M12 A3046 RMK A01 T10021120  RH  041%=      5-min Rain = 0
KOD1 140354Z 14007KT M00/M12 A3046 RMK A01 T10021120  RH  041%=      5-min Rain = 0
KOD1 140355Z 14008KT M00/M12 A3046 RMK A01 T10011120  RH  040%=      5-min Rain = 0
KOD1 140356Z 14007KT M00/M12 A3046 RMK A01 T10011120  RH  040%=      5-min Rain = 0
KOD1 140357Z 14007KT 00/12 A3046 RMK A01 T00-00-120  RH  040%=      5-min Rain = 0
KOD1 140358Z 13007KT 00/12 A3046 RMK A01 T00000-120  RH  040%=      5-min Rain = 0
KOD1 140359Z 13007KT 00/12 A3046 RMK A01 T00000-120  RH  040%=      5-min Rain = 0
KOD1 140400Z 13007KT 00/12 A3046 RMK A01 T00000-120  RH  040%=      5-min Rain = 0
KOD1 140401Z 13006KT 00/12 A3046 RMK A01 T00-00-120  RH  040%=      5-min Rain = 0
KOD1 140402Z 13006KT M00/M12 A3046 RMK A01 T10011120  RH  040%=      5-min Rain = 0
KOD1 140403Z 12007KT M00/M12 A3046 RMK A01 T10011120  RH  040%=      5-min Rain = 0
KOD1 140404Z 12007KT M00/M12 A3046 RMK A01 T10011120  RH  040%=      5-min Rain = 0
KOD1 140405Z 12007KT M00/M12 A3046 RMK A01 T10011120  RH  040%=      5-min Rain = 0
KOD1 140406Z 12007KT M00/M12 A3046 RMK A01 T10011120  RH  040%=      5-min Rain = 0
KOD1 140407Z 12007KT M00/M12 A3046 RMK A01 T10011120  RH  040%=      5-min Rain = 0
KOD1 140408Z 12008KT M00/M12 A3046 RMK A01 T10011120  RH  040%=      5-min Rain = 0
KOD1 140409Z 12008KT M00/M12 A3046 RMK A01 T10011120  RH  040%=      5-min Rain = 0
KOD1 140410Z 12008KT M00/M12 A3046 RMK A01 T10011120  RH  040%=      5-min Rain = 0
KOD1 140411Z 12007KT M00/M12 A3046 RMK A01 T10011120  RH  040%=      5-min Rain = 0
KOD1 140412Z 12008KT M00/M12 A3046 RMK A01 T10011120  RH  040%=      5-min Rain = 0
KOD1 140413Z 12006KT 00/12 A3046 RMK A01 T00-00-120  RH  040%=      5-min Rain = 0
KOD1 140414Z 12006KT M00/M12 A3046 RMK A01 T10011120  RH  040%=      5-min Rain = 0
KOD1 140415Z 11007KT M00/M12 A3046 RMK A01 T10011120  RH  040%=      5-min Rain = 0
KOD1 140416Z 11007KT M00/M12 A3046 RMK A01 T10011120  RH  041%=      5-min Rain = 0
KOD1 140417Z 11007KT M00/M12 A3046 RMK A01 T10021120  RH  041%=      5-min Rain = 0
KOD1 140418Z 12007KT M00/M12 A3046 RMK A01 T10021120  RH  041%=      5-min Rain = 0
KOD1 140419Z 12007KT M00/M12 A3046 RMK A01 T10021120  RH  041%=      5-min Rain = 0
KOD1 140420Z 12007KT M00/M12 A3046 RMK A01 T10021120  RH  041%=      5-min Rain = 0
KOD1 140421Z 12007KT M00/M12 A3046 RMK A01 T10021120  RH  041%=      5-min Rain = 0
KOD1 140422Z 12007KT M00/M12 A3046 RMK A01 T10031120  RH  041%=      5-min Rain = 0
KOD1 140423Z 12008KT M00/M12 A3046 RMK A01 T10031120  RH  041%=      5-min Rain = 0
KOD1 140424Z 12007KT M00/M12 A3046 RMK A01 T10031119  RH  041%=      5-min Rain = 0
KOD1 140425Z 12007KT M00/M12 A3046 RMK A01 T10031119  RH  041%=      5-min Rain = 0
KOD1 140426Z 12007KT M00/M12 A3046 RMK A01 T10041120  RH  041%=      5-min Rain = 0
KOD1 140427Z 12007KT M00/M12 A3046 RMK A01 T10041119  RH  041%=      5-min Rain = 0
KOD1 140428Z 12006KT M00/M12 A3046 RMK A01 T10041119  RH  041%=      5-min Rain = 0
KOD1 140429Z 12007KT M00/M12 A3046 RMK A01 T10041120  RH  041%=      5-min Rain = 0
KOD1 140430Z 11007KT M01/M12 A3046 RMK A01 T10051120  RH  042%=      5-min Rain = 0
KOD1 140431Z 12007KT M01/M12 A3046 RMK A01 T10051119  RH  042%=      5-min Rain = 0
KOD1 140432Z 11007KT M01/M12 A3046 RMK A01 T10061119  RH  042%=      5-min Rain = 0
KOD1 140433Z 11006KT M01/M12 A3046 RMK A01 T10071119  RH  042%=      5-min Rain = 0
KOD1 140434Z 11007KT M01/M12 A3046 RMK A01 T10071119  RH  043%=      5-min Rain = 0
KOD1 140435Z 12007KT M01/M12 A3046 RMK A01 T10081119  RH  043%=      5-min Rain = 0
KOD1 140436Z 11007KT M01/M12 A3046 RMK A01 T10081119  RH  043%=      5-min Rain = 0
KOD1 140437Z 11007KT M01/M12 A3046 RMK A01 T10081119  RH  043%=      5-min Rain = 0
KOD1 140438Z 11006KT M01/M12 A3046 RMK A01 T10081118  RH  043%=      5-min Rain = 0
KOD1 140439Z 11006KT M01/M12 A3046 RMK A01 T10081119  RH  043%=      5-min Rain = 0
KOD1 140440Z 11006KT M01/M12 A3046 RMK A01 T10091119  RH  043%=      5-min Rain = 0
KOD1 140441Z 10005KT M01/M12 A3046 RMK A01 T10091119  RH  043%=      5-min Rain = 0
KOD1 140442Z 11006KT M01/M12 A3046 RMK A01 T10101119  RH  043%=      5-min Rain = 0
KOD1 140443Z 11006KT M01/M12 A3046 RMK A01 T10111118  RH  044%=      5-min Rain = 0
KOD1 140444Z 11007KT M01/M12 A3046 RMK A01 T10121118  RH  044%=      5-min Rain = 0
KOD1 140445Z 11007KT M01/M12 A3045 RMK A01 T10121118  RH  045%=      5-min Rain = 0
KOD1 140446Z 11007KT M01/M12 A3045 RMK A01 T10131118  RH  045%=      5-min Rain = 0
KOD1 140447Z 11007KT M01/M12 A3045 RMK A01 T10141118  RH  045%=      5-min Rain = 0
KOD1 140448Z 11007KT M01/M12 A3045 RMK A01 T10141117  RH  045%=      5-min Rain = 0
KOD1 140449Z 12007KT M01/M12 A3045 RMK A01 T10141117  RH  045%=      5-min Rain = 0
KOD1 140450Z 11008KT M02/M12 A3045 RMK A01 T10151117  RH  046%=      5-min Rain = 0
KOD1 140451Z 11007KT M02/M12 A3045 RMK A01 T10151116  RH  046%=      5-min Rain = 0
KOD1 140452Z 11007KT M01/M12 A3045 RMK A01 T10141116  RH  046%=      5-min Rain = 0
KOD1 140453Z 11007KT M01/M12 A3045 RMK A01 T10141116  RH  046%=      5-min Rain = 0
KOD1 140454Z 11007KT M01/M12 A3045 RMK A01 T10141116  RH  046%=      5-min Rain = 0
KOD1 140455Z 11006KT M02/M12 A3045 RMK A01 T10151116  RH  046%=      5-min Rain = 0
KOD1 140456Z 11007KT M02/M12 A3045 RMK A01 T10151116  RH  046%=      5-min Rain = 0
KOD1 140457Z 11006KT M02/M12 A3045 RMK A01 T10161116  RH  046%=      5-min Rain = 0
KOD1 140458Z 11007KT M02/M12 A3045 RMK A01 T10161116  RH  046%=      5-min Rain = 0
KOD1 140459Z 11007KT M02/M12 A3045 RMK A01 T10161116  RH  047%=      5-min Rain = 0
KOD1 140500Z 11007KT M02/M12 A3045 RMK A01 T10161116  RH  047%=      5-min Rain = 0
KOD1 140501Z 11007KT M02/M12 A3045 RMK A01 T10161116  RH  047%=      5-min Rain = 0
KOD1 140502Z 11007KT M02/M12 A3045 RMK A01 T10171115  RH  047%=      5-min Rain = 0
KOD1 140503Z 12007KT M02/M12 A3045 RMK A01 T10171115  RH  047%=      5-min Rain = 0
KOD1 140504Z 11006KT M02/M11 A3045 RMK A01 T10171114  RH  047%=      5-min Rain = 0
KOD1 140505Z 11008KT M02/M11 A3045 RMK A01 T10171114  RH  047%=      5-min Rain = 0
KOD1 140506Z 11007KT M02/M11 A3045 RMK A01 T10171114  RH  047%=      5-min Rain = 0
KOD1 140507Z 11007KT M02/M11 A3045 RMK A01 T10171114  RH  048%=      5-min Rain = 0
KOD1 140508Z 11007KT M02/M11 A3045 RMK A01 T10171114  RH  048%=      5-min Rain = 0
KOD1 140509Z 11006KT M02/M11 A3045 RMK A01 T10171114  RH  048%=      5-min Rain = 0
KOD1 140510Z 11006KT M02/M11 A3045 RMK A01 T10181114  RH  048%=      5-min Rain = 0
KOD1 140511Z 10006KT M02/M11 A3045 RMK A01 T10181113  RH  048%=      5-min Rain = 0
KOD1 140512Z 10006KT M02/M11 A3045 RMK A01 T10191113  RH  049%=      5-min Rain = 0
KOD1 140513Z 10006KT M02/M11 A3045 RMK A01 T10201113  RH  049%=      5-min Rain = 0
KOD1 140514Z 10006KT M02/M11 A3045 RMK A01 T10201113  RH  049%=      5-min Rain = 0
KOD1 140515Z 10006KT M02/M11 A3045 RMK A01 T10201112  RH  049%=      5-min Rain = 0
KOD1 140516Z 10006KT M02/M11 A3045 RMK A01 T10201112  RH  049%=      5-min Rain = 0
KOD1 140517Z 10006KT M02/M11 A3045 RMK A01 T10201112  RH  049%=      5-min Rain = 0
KOD1 140518Z 10005KT M02/M11 A3045 RMK A01 T10201112  RH  049%=      5-min Rain = 0
KOD1 140519Z 11005KT M02/M11 A3045 RMK A01 T10201112  RH  049%=      5-min Rain = 0
KOD1 140520Z 10005KT M02/M11 A3045 RMK A01 T10201112  RH  050%=      5-min Rain = 0
KOD1 140521Z 10006KT M02/M11 A3045 RMK A01 T10211112  RH  050%=      5-min Rain = 0
KOD1 140522Z 10006KT M02/M11 A3046 RMK A01 T10211112  RH  050%=      5-min Rain = 0
KOD1 140523Z 09005KT M02/M11 A3046 RMK A01 T10211112  RH  050%=      5-min Rain = 0
KOD1 140524Z 10006KT M02/M11 A3046 RMK A01 T10211112  RH  050%=      5-min Rain = 0
KOD1 140525Z 09005KT M02/M11 A3046 RMK A01 T10221112  RH  050%=      5-min Rain = 0
KOD1 140526Z 09006KT M02/M11 A3045 RMK A01 T10221112  RH  050%=      5-min Rain = 0
KOD1 140527Z 09006KT M02/M11 A3045 RMK A01 T10221112  RH  050%=      5-min Rain = 0
KOD1 140528Z 09006KT M02/M11 A3045 RMK A01 T10221112  RH  050%=      5-min Rain = 0
KOD1 140529Z 09005KT M02/M11 A3046 RMK A01 T10231112  RH  050%=      5-min Rain = 0
KOD1 140530Z 08005KT M02/M11 A3046 RMK A01 T10231113  RH  050%=      5-min Rain = 0
KOD1 140531Z 08004KT M02/M11 A3046 RMK A01 T10241113  RH  050%=      5-min Rain = 0
KOD1 140532Z 08005KT M02/M11 A3046 RMK A01 T10241113  RH  051%=      5-min Rain = 0
KOD1 140533Z 08005KT M03/M11 A3046 RMK A01 T10251113  RH  051%=      5-min Rain = 0
KOD1 140534Z 08006KT M03/M11 A3046 RMK A01 T10261113  RH  051%=      5-min Rain = 0
KOD1 140535Z 08005KT M03/M11 A3046 RMK A01 T10261112  RH  052%=      5-min Rain = 0
KOD1 140536Z 08005KT M03/M11 A3046 RMK A01 T10261112  RH  052%=      5-min Rain = 0
KOD1 140537Z 08005KT M03/M11 A3046 RMK A01 T10271112  RH  052%=      5-min Rain = 0
KOD1 140538Z 09006KT M03/M11 A3046 RMK A01 T10271112  RH  052%=      5-min Rain = 0
KOD1 140539Z 08005KT M03/M11 A3046 RMK A01 T10271111  RH  052%=      5-min Rain = 0
KOD1 140540Z 08005KT M03/M11 A3046 RMK A01 T10281114  RH  052%=      5-min Rain = 0
KOD1 140541Z 08004KT M03/M12 A3046 RMK A01 T10301116  RH  051%=      5-min Rain = 0
KOD1 140542Z 08005KT M03/M12 A3046 RMK A01 T10331116  RH  052%=      5-min Rain = 0
KOD1 140543Z 09004KT M03/M12 A3046 RMK A01 T10341116  RH  053%=      5-min Rain = 0
KOD1 140544Z 09004KT M04/M12 A3046 RMK A01 T10361116  RH  054%=      5-min Rain = 0
KOD1 140545Z 10004KT M04/M12 A3046 RMK A01 T10371115  RH  055%=      5-min Rain = 0
KOD1 140546Z 10005KT M04/M11 A3046 RMK A01 T10351111  RH  056%=      5-min Rain = 0
KOD1 140547Z 10005KT M03/M11 A3046 RMK A01 T10341109  RH  056%=      5-min Rain = 0
KOD1 140548Z 11005KT M03/M11 A3046 RMK A01 T10321109  RH  055%=      5-min Rain = 0
KOD1 140549Z 11006KT M03/M11 A3046 RMK A01 T10311110  RH  054%=      5-min Rain = 0
KOD1 140550Z 12006KT M03/M11 A3046 RMK A01 T10301110  RH  054%=      5-min Rain = 0
KOD1 140551Z 12006KT M03/M11 A3046 RMK A01 T10291109  RH  054%=      5-min Rain = 0
KOD1 140552Z 12006KT M03/M11 A3045 RMK A01 T10281108  RH  054%=      5-min Rain = 0
KOD1 140553Z 12007KT M03/M11 A3045 RMK A01 T10281109  RH  054%=      5-min Rain = 0
KOD1 140554Z 12007KT M03/M11 A3045 RMK A01 T10271109  RH  053%=      5-min Rain = 0
KOD1 140555Z 12007KT M03/M11 A3045 RMK A01 T10271108  RH  053%=      5-min Rain = 0
KOD1 140556Z 12007KT M03/M11 A3045 RMK A01 T10261108  RH  053%=      5-min Rain = 0
KOD1 140557Z 12007KT M03/M11 A3045 RMK A01 T10251108  RH  053%=      5-min Rain = 0
KOD1 140558Z 12007KT M03/M11 A3045 RMK A01 T10251108  RH  053%=      5-min Rain = 0
KOD1 140559Z 12007KT M03/M11 A3045 RMK A01 T10251108  RH  053%=      5-min Rain = 0

Page generated in 0.092 seconds.